Time,TemperatureF,DewpointF,PressureIn,WindDirection,WindDirectionDegrees,WindSpeedMPH,WindSpeedGustMPH,Humidity,HourlyPrecipIn,Conditions,Clouds,dailyrainin,SolarRadiationWatts/m^2,SoftwareType,DateUTC
2013-01-23 00:00:00,13.1,-0.4,29.44,NW,321,0.0,0.0,54,0.00,,OVC045,0.00,0.00,VWS V14.01,2013-01-23 06:00:00,
2013-01-23 00:01:00,13.1,-0.4,29.44,NW,321,0.0,0.0,54,0.00,,OVC045,0.00,0.00,VWS V14.01,2013-01-23 06:01:00,
2013-01-23 00:02:00,13.1,-0.4,29.44,NW,321,0.0,0.0,54,0.00,,BKN095,0.00,0.00,VWS V14.01,2013-01-23 06:02:00,
2013-01-23 00:03:00,13.0,-0.1,29.44,NW,321,0.0,0.0,55,0.00,,OVC045,0.00,0.00,VWS V14.01,2013-01-23 06:03:00,
2013-01-23 00:04:00,13.0,-0.5,29.43,NW,321,1.0,1.0,54,0.00,,BKN095,0.00,0.00,VWS V14.01,2013-01-23 06:04:00,
2013-01-23 00:05:00,13.0,-0.5,29.44,SW,226,0.0,2.0,54,0.00,,BKN095,0.00,0.00,VWS V14.01,2013-01-23 06:05:00,
2013-01-23 00:06:00,13.0,-0.5,29.43,West,264,0.0,2.0,54,0.00,,OVC045,0.00,0.00,VWS V14.01,2013-01-23 06:06:00,
2013-01-23 00:07:00,12.9,-0.6,29.43,West,264,0.0,0.0,54,0.00,,BKN095,0.00,0.00,VWS V14.01,2013-01-23 06:07:00,
2013-01-23 00:08:00,12.9,-0.2,29.43,West,264,0.0,1.0,55,0.00,,OVC045,0.00,0.00,VWS V14.01,2013-01-23 06:08:00,
2013-01-23 00:09:00,12.9,-0.2,29.43,West,265,1.0,1.0,55,0.00,,OVC045,0.00,0.00,VWS V14.01,2013-01-23 06:09:00,
2013-01-23 00:10:00,12.9,-0.2,29.43,WNW,300,0.0,2.0,55,0.00,,OVC045,0.00,0.00,VWS V14.01,2013-01-23 06:10:00,
2013-01-23 00:11:00,12.9,-0.2,29.43,WNW,300,0.0,1.0,55,0.00,,BKN095,0.00,0.00,VWS V14.01,2013-01-23 06:11:00,
2013-01-23 00:12:00,12.9,-0.2,29.43,WNW,300,0.0,0.0,55,0.00,,BKN095,0.00,0.00,VWS V14.01,2013-01-23 06:12:00,
2013-01-23 00:13:00,12.9,-0.2,29.43,WNW,300,0.0,2.0,55,0.00,,BKN095,0.00,0.00,VWS V14.01,2013-01-23 06:13:00,
2013-01-23 00:14:00,12.9,-0.2,29.43,WNW,300,0.0,0.0,55,0.00,,OVC045,0.00,0.00,VWS V14.01,2013-01-23 06:14:00,
2013-01-23 00:15:00,12.8,-0.3,29.43,WNW,300,0.0,1.0,55,0.00,,OVC045,0.00,0.00,VWS V14.01,2013-01-23 06:15:00,
2013-01-23 00:16:00,12.8,-0.3,29.43,WNW,300,0.0,0.0,55,0.00,,BKN095,0.00,0.00,VWS V14.01,2013-01-23 06:16:00,
2013-01-23 00:17:00,12.8,0.1,29.43,WNW,300,0.0,1.0,56,0.00,,OVC045,0.00,0.00,VWS V14.01,2013-01-23 06:17:00,
2013-01-23 00:18:00,12.8,0.1,29.43,WNW,300,0.0,0.0,56,0.00,,BKN095,0.00,0.00,VWS V14.01,2013-01-23 06:18:00,
2013-01-23 00:19:00,12.9,0.2,29.43,WNW,300,0.0,1.0,56,0.00,,BKN095,0.00,0.00,VWS V14.01,2013-01-23 06:19:00,
2013-01-23 00:20:00,12.9,0.2,29.43,WNW,300,0.0,1.0,56,0.00,,OVC045,0.00,0.00,VWS V14.01,2013-01-23 06:20:00,
2013-01-23 00:21:00,12.9,0.2,29.43,SW,230,3.0,3.0,56,0.00,,OVC045,0.00,0.00,VWS V14.01,2013-01-23 06:21:00,
2013-01-23 00:22:00,12.9,-0.2,29.43,West,275,0.0,3.0,55,0.00,,OVC045,0.00,0.00,VWS V14.01,2013-01-23 06:22:00,
2013-01-23 00:23:00,12.9,-0.2,29.43,West,275,0.0,1.0,55,0.00,,OVC045,0.00,0.00,VWS V14.01,2013-01-23 06:23:00,
2013-01-23 00:24:00,12.9,-0.2,29.43,West,275,0.0,2.0,55,0.00,,BKN095,0.00,0.00,VWS V14.01,2013-01-23 06:24:00,
2013-01-23 00:25:00,12.9,-0.2,29.43,West,275,0.0,2.0,55,0.00,,BKN095,0.00,0.00,VWS V14.01,2013-01-23 06:25:00,
2013-01-23 00:26:00,12.9,-0.2,29.43,West,275,0.0,0.0,55,0.00,,BKN095,0.00,0.00,VWS V14.01,2013-01-23 06:26:00,
2013-01-23 00:27:00,12.9,-0.2,29.43,SW,232,0.0,2.0,55,0.00,,OVC045,0.00,0.00,VWS V14.01,2013-01-23 06:27:00,
2013-01-23 00:28:00,12.9,-0.2,29.43,SW,232,0.0,1.0,55,0.00,,OVC045,0.00,0.00,VWS V14.01,2013-01-23 06:28:00,
2013-01-23 00:29:00,12.9,-0.2,29.43,NW,304,1.0,3.0,55,0.00,,OVC045,0.00,0.00,VWS V14.01,2013-01-23 06:29:00,
2013-01-23 00:30:00,13.0,-0.1,29.43,NW,304,2.0,2.0,55,0.00,,BKN095,0.00,0.00,VWS V14.01,2013-01-23 06:30:00,
2013-01-23 00:31:00,12.9,-0.2,29.43,NW,304,1.0,3.0,55,0.00,,OVC045,0.00,0.00,VWS V14.01,2013-01-23 06:31:00,
2013-01-23 00:32:00,12.9,-0.2,29.43,NW,304,0.0,1.0,55,0.00,,OVC045,0.00,0.00,VWS V14.01,2013-01-23 06:32:00,
2013-01-23 00:33:00,12.9,-0.2,29.43,NW,304,0.0,2.0,55,0.00,,OVC045,0.00,0.00,VWS V14.01,2013-01-23 06:33:00,
2013-01-23 00:34:00,12.9,-0.2,29.43,WNW,303,0.0,1.0,55,0.00,,BKN095,0.00,0.00,VWS V14.01,2013-01-23 06:34:00,
2013-01-23 00:35:00,12.9,0.2,29.42,WNW,303,0.0,0.0,56,0.00,,OVC045,0.00,0.00,VWS V14.01,2013-01-23 06:35:00,
2013-01-23 00:36:00,12.9,0.2,29.42,NW,304,0.0,0.0,56,0.00,,OVC045,0.00,0.00,VWS V14.01,2013-01-23 06:36:00,
2013-01-23 00:37:00,12.9,0.2,29.42,SSW,207,2.0,2.0,56,0.00,,BKN095,0.00,0.00,VWS V14.01,2013-01-23 06:37:00,
2013-01-23 00:38:00,13.0,-0.1,29.42,SSW,207,0.0,2.0,55,0.00,,OVC045,0.00,0.00,VWS V14.01,2013-01-23 06:38:00,
2013-01-23 00:39:00,12.9,-0.2,29.42,SSW,207,1.0,1.0,55,0.00,,BKN095,0.00,0.00,VWS V14.01,2013-01-23 06:39:00,
2013-01-23 00:40:00,12.9,-0.2,29.42,SSW,207,0.0,1.0,55,0.00,,OVC045,0.00,0.00,VWS V14.01,2013-01-23 06:40:00,
2013-01-23 00:41:00,12.9,-0.2,29.42,SSW,207,0.0,1.0,55,0.00,,OVC045,0.00,0.00,VWS V14.01,2013-01-23 06:41:00,
2013-01-23 00:42:00,12.9,-0.2,29.42,SSW,207,2.0,2.0,55,0.00,,OVC045,0.00,0.00,VWS V14.01,2013-01-23 06:42:00,
2013-01-23 00:43:00,12.9,0.2,29.42,SSW,207,0.0,2.0,56,0.00,,BKN095,0.00,0.00,VWS V14.01,2013-01-23 06:43:00,
2013-01-23 00:44:00,12.9,0.2,29.42,SSW,207,0.0,0.0,56,0.00,,BKN095,0.00,0.00,VWS V14.01,2013-01-23 06:44:00,
2013-01-23 00:45:00,12.9,0.2,29.42,NW,317,0.0,2.0,56,0.00,,BKN095,0.00,0.00,VWS V14.01,2013-01-23 06:45:00,
2013-01-23 00:46:00,12.9,0.2,29.42,NW,317,0.0,0.0,56,0.00,,OVC045,0.00,0.00,VWS V14.01,2013-01-23 06:46:00,
2013-01-23 00:47:00,12.9,0.2,29.42,NW,317,0.0,0.0,56,0.00,,OVC045,0.00,0.00,VWS V14.01,2013-01-23 06:47:00,
2013-01-23 00:48:00,12.9,0.2,29.42,NW,317,0.0,0.0,56,0.00,,OVC045,0.00,0.00,VWS V14.01,2013-01-23 06:48:00,
2013-01-23 00:49:00,12.9,0.6,29.42,NW,317,0.0,0.0,57,0.00,,OVC045,0.00,0.00,VWS V14.01,2013-01-23 06:49:00,
2013-01-23 00:50:00,12.9,0.6,29.42,NW,317,0.0,0.0,57,0.00,,BKN095,0.00,0.00,VWS V14.01,2013-01-23 06:50:00,
2013-01-23 00:51:00,12.8,0.1,29.42,SSW,196,0.0,2.0,56,0.00,,OVC045,0.00,0.00,VWS V14.01,2013-01-23 06:51:00,
2013-01-23 00:52:00,12.8,0.5,29.42,SSW,196,0.0,0.0,57,0.00,,OVC045,0.00,0.00,VWS V14.01,2013-01-23 06:52:00,
2013-01-23 00:53:00,12.8,0.4,29.42,SSW,196,0.0,1.0,57,0.00,,BKN095,0.00,0.00,VWS V14.01,2013-01-23 06:53:00,
2013-01-23 00:54:00,12.8,0.4,29.42,SSW,195,0.0,0.0,57,0.00,,BKN095,0.00,0.00,VWS V14.01,2013-01-23 06:54:00,
2013-01-23 00:55:00,12.8,0.4,29.42,SSW,195,1.0,1.0,57,0.00,,BKN095,0.00,0.00,VWS V14.01,2013-01-23 06:55:00,
2013-01-23 00:56:00,12.8,0.4,29.42,SSW,195,0.0,1.0,57,0.00,,BKN095,0.00,0.00,VWS V14.01,2013-01-23 06:56:00,
2013-01-23 00:57:00,12.8,0.5,29.42,SSW,196,0.0,0.0,57,0.00,,OVC045,0.00,0.00,VWS V14.01,2013-01-23 06:57:00,
2013-01-23 00:58:00,12.8,0.5,29.42,SSW,196,0.0,1.0,57,0.00,,OVC045,0.00,0.00,VWS V14.01,2013-01-23 06:58:00,
2013-01-23 00:59:00,12.8,0.5,29.42,SSW,195,0.0,0.0,57,0.00,,OVC045,0.00,0.00,VWS V14.01,2013-01-23 06:59:00,
2013-01-23 01:00:00,12.7,0.4,29.42,SSW,195,0.0,0.0,57,0.00,,BKN095,0.00,0.00,VWS V14.01,2013-01-23 07:00:00,
2013-01-23 01:01:00,12.7,0.4,29.42,SSW,195,0.0,0.0,57,0.00,,OVC045,0.00,0.00,VWS V14.01,2013-01-23 07:01:00,
2013-01-23 01:02:00,12.7,0.4,29.42,SSW,195,0.0,0.0,57,0.00,,BKN080,0.00,0.00,VWS V14.01,2013-01-23 07:02:00,
2013-01-23 01:03:00,12.7,0.4,29.42,SSW,196,0.0,0.0,57,0.00,,BKN080,0.00,0.00,VWS V14.01,2013-01-23 07:03:00,
2013-01-23 01:04:00,12.6,0.3,29.42,SSW,196,0.0,0.0,57,0.00,,OVC045,0.00,0.00,VWS V14.01,2013-01-23 07:04:00,
2013-01-23 01:05:00,12.6,0.3,29.42,SSW,196,1.0,1.0,57,0.00,,BKN080,0.00,0.00,VWS V14.01,2013-01-23 07:05:00,
2013-01-23 01:06:00,12.6,0.3,29.42,SSW,196,0.0,1.0,57,0.00,,BKN080,0.00,0.00,VWS V14.01,2013-01-23 07:06:00,
2013-01-23 01:07:00,12.6,0.3,29.42,SSW,195,0.0,0.0,57,0.00,,OVC045,0.00,0.00,VWS V14.01,2013-01-23 07:07:00,
2013-01-23 01:08:00,12.6,0.3,29.42,SSW,195,0.0,0.0,57,0.00,,OVC045,0.00,0.00,VWS V14.01,2013-01-23 07:08:00,
2013-01-23 01:09:00,12.6,0.3,29.42,SSW,195,0.0,0.0,57,0.00,,OVC045,0.00,0.00,VWS V14.01,2013-01-23 07:09:00,
2013-01-23 01:10:00,12.5,0.2,29.42,SSW,196,0.0,0.0,57,0.00,,OVC045,0.00,0.00,VWS V14.01,2013-01-23 07:10:00,
2013-01-23 01:11:00,12.5,0.2,29.42,SSW,196,0.0,0.0,57,0.00,,BKN080,0.00,0.00,VWS V14.01,2013-01-23 07:11:00,
2013-01-23 01:12:00,12.5,0.5,29.42,SSW,196,0.0,0.0,58,0.00,,BKN080,0.00,0.00,VWS V14.01,2013-01-23 07:12:00,
2013-01-23 01:13:00,12.5,0.5,29.42,SSW,196,0.0,1.0,58,0.00,,OVC045,0.00,0.00,VWS V14.01,2013-01-23 07:13:00,
2013-01-23 01:14:00,12.4,0.4,29.42,SSW,196,0.0,0.0,58,0.00,,OVC045,0.00,0.00,VWS V14.01,2013-01-23 07:14:00,
2013-01-23 01:15:00,12.4,0.4,29.42,SSW,196,0.0,0.0,58,0.00,,BKN080,0.00,0.00,VWS V14.01,2013-01-23 07:15:00,
2013-01-23 01:16:00,12.4,0.4,29.42,SSW,196,0.0,0.0,58,0.00,,OVC045,0.00,0.00,VWS V14.01,2013-01-23 07:16:00,
2013-01-23 01:17:00,12.4,0.4,29.42,SSW,196,0.0,0.0,58,0.00,,BKN080,0.00,0.00,VWS V14.01,2013-01-23 07:17:00,
2013-01-23 01:18:00,12.4,0.4,29.42,SSW,195,0.0,1.0,58,0.00,,OVC045,0.00,0.00,VWS V14.01,2013-01-23 07:18:00,
2013-01-23 01:19:00,12.3,0.3,29.42,SSW,195,0.0,1.0,58,0.00,,OVC045,0.00,0.00,VWS V14.01,2013-01-23 07:19:00,
2013-01-23 01:20:00,12.4,0.4,29.42,SSW,196,0.0,0.0,58,0.00,,BKN080,0.00,0.00,VWS V14.01,2013-01-23 07:20:00,
2013-01-23 01:21:00,12.3,0.3,29.42,SSW,196,0.0,0.0,58,0.00,,BKN080,0.00,0.00,VWS V14.01,2013-01-23 07:21:00,
2013-01-23 01:22:00,12.3,0.3,29.42,SSW,196,0.0,0.0,58,0.00,,BKN080,0.00,0.00,VWS V14.01,2013-01-23 07:22:00,
2013-01-23 01:23:00,12.3,0.3,29.42,SSW,196,0.0,0.0,58,0.00,,OVC045,0.00,0.00,VWS V14.01,2013-01-23 07:23:00,
2013-01-23 01:24:00,12.3,0.3,29.42,SSW,195,0.0,0.0,58,0.00,,OVC045,0.00,0.00,VWS V14.01,2013-01-23 07:24:00,
2013-01-23 01:25:00,12.3,0.3,29.42,SSW,196,0.0,0.0,58,0.00,,OVC045,0.00,0.00,VWS V14.01,2013-01-23 07:25:00,
2013-01-23 01:26:00,12.3,0.3,29.42,SSW,196,0.0,0.0,58,0.00,,OVC045,0.00,0.00,VWS V14.01,2013-01-23 07:26:00,
2013-01-23 01:27:00,12.3,0.3,29.42,SSW,196,0.0,0.0,58,0.00,,BKN080,0.00,0.00,VWS V14.01,2013-01-23 07:27:00,
2013-01-23 01:28:00,12.3,0.3,29.42,SSW,195,0.0,0.0,58,0.00,,BKN080,0.00,0.00,VWS V14.01,2013-01-23 07:28:00,
2013-01-23 01:29:00,12.3,0.3,29.42,SSW,196,0.0,0.0,58,0.00,,BKN080,0.00,0.00,VWS V14.01,2013-01-23 07:29:00,
2013-01-23 01:30:00,12.3,0.3,29.42,SSW,195,0.0,0.0,58,0.00,,OVC045,0.00,0.00,VWS V14.01,2013-01-23 07:30:00,
2013-01-23 01:31:00,12.3,0.3,29.42,SSW,195,0.0,1.0,58,0.00,,OVC045,0.00,0.00,VWS V14.01,2013-01-23 07:31:00,
2013-01-23 01:32:00,12.3,0.3,29.42,SSW,196,0.0,1.0,58,0.00,,BKN080,0.00,0.00,VWS V14.01,2013-01-23 07:32:00,
2013-01-23 01:33:00,12.3,0.7,29.42,SSW,196,0.0,0.0,59,0.00,,BKN080,0.00,0.00,VWS V14.01,2013-01-23 07:33:00,
2013-01-23 01:34:00,12.3,0.7,29.42,SSW,196,0.0,0.0,59,0.00,,BKN080,0.00,0.00,VWS V14.01,2013-01-23 07:34:00,
2013-01-23 01:35:00,12.3,0.7,29.42,SSW,196,0.0,0.0,59,0.00,,BKN080,0.00,0.00,VWS V14.01,2013-01-23 07:35:00,
2013-01-23 01:36:00,12.3,0.7,29.42,SSW,195,0.0,1.0,59,0.00,,OVC045,0.00,0.00,VWS V14.01,2013-01-23 07:36:00,
2013-01-23 01:37:00,12.3,0.7,29.42,SSW,195,0.0,0.0,59,0.00,,OVC045,0.00,0.00,VWS V14.01,2013-01-23 07:37:00,
2013-01-23 01:38:00,12.3,0.7,29.42,SSW,196,0.0,0.0,59,0.00,,BKN080,0.00,0.00,VWS V14.01,2013-01-23 07:38:00,
2013-01-23 01:39:00,12.4,0.8,29.42,SSW,196,0.0,0.0,59,0.00,,OVC045,0.00,0.00,VWS V14.01,2013-01-23 07:39:00,
2013-01-23 01:40:00,12.4,0.8,29.42,SSW,196,0.0,0.0,59,0.00,,BKN080,0.00,0.00,VWS V14.01,2013-01-23 07:40:00,
2013-01-23 01:41:00,12.4,0.8,29.42,SSW,196,0.0,0.0,59,0.00,,OVC045,0.00,0.00,VWS V14.01,2013-01-23 07:41:00,
2013-01-23 01:42:00,12.4,0.8,29.42,SSW,196,0.0,0.0,59,0.00,,OVC045,0.00,0.00,VWS V14.01,2013-01-23 07:42:00,
2013-01-23 01:43:00,12.4,0.8,29.42,SSW,196,0.0,1.0,59,0.00,,BKN080,0.00,0.00,VWS V14.01,2013-01-23 07:43:00,
2013-01-23 01:44:00,12.4,0.8,29.42,SSW,196,0.0,0.0,59,0.00,,BKN080,0.00,0.00,VWS V14.01,2013-01-23 07:44:00,
2013-01-23 01:45:00,12.5,0.9,29.42,SSW,196,0.0,1.0,59,0.00,,OVC045,0.00,0.00,VWS V14.01,2013-01-23 07:45:00,
2013-01-23 01:46:00,12.5,0.9,29.42,SSW,196,0.0,0.0,59,0.00,,OVC045,0.00,0.00,VWS V14.01,2013-01-23 07:46:00,
2013-01-23 01:47:00,12.5,0.9,29.42,SSW,196,0.0,0.0,59,0.00,,BKN080,0.00,0.00,VWS V14.01,2013-01-23 07:47:00,
2013-01-23 01:48:00,12.5,0.9,29.42,SSW,196,0.0,0.0,59,0.00,,OVC045,0.00,0.00,VWS V14.01,2013-01-23 07:48:00,
2013-01-23 01:49:00,12.5,0.9,29.42,SSW,195,0.0,0.0,59,0.00,,BKN080,0.00,0.00,VWS V14.01,2013-01-23 07:49:00,
2013-01-23 01:50:00,12.5,0.9,29.42,SSW,196,0.0,0.0,59,0.00,,OVC045,0.00,0.00,VWS V14.01,2013-01-23 07:50:00,
2013-01-23 01:51:00,12.6,1.0,29.42,SSW,196,0.0,0.0,59,0.00,,BKN080,0.00,0.00,VWS V14.01,2013-01-23 07:51:00,
2013-01-23 01:52:00,12.6,1.0,29.42,SSW,196,0.0,0.0,59,0.00,,BKN080,0.00,0.00,VWS V14.01,2013-01-23 07:52:00,
2013-01-23 01:53:00,12.6,1.0,29.42,SSW,196,0.0,0.0,59,0.00,,BKN080,0.00,0.00,VWS V14.01,2013-01-23 07:53:00,
2013-01-23 01:54:00,12.6,1.0,29.42,SSW,196,0.0,0.0,59,0.00,,BKN080,0.00,0.00,VWS V14.01,2013-01-23 07:54:00,
2013-01-23 01:55:00,12.6,1.0,29.42,SSW,196,0.0,0.0,59,0.00,,OVC045,0.00,0.00,VWS V14.01,2013-01-23 07:55:00,
2013-01-23 01:56:00,12.6,1.0,29.42,SSW,196,0.0,0.0,59,0.00,,OVC045,0.00,0.00,VWS V14.01,2013-01-23 07:56:00,
2013-01-23 01:57:00,12.6,1.0,29.42,SSW,196,0.0,0.0,59,0.00,,OVC045,0.00,0.00,VWS V14.01,2013-01-23 07:57:00,
2013-01-23 01:58:00,12.6,1.0,29.42,SSW,196,0.0,0.0,59,0.00,,BKN080,0.00,0.00,VWS V14.01,2013-01-23 07:58:00,
2013-01-23 01:59:00,12.7,1.1,29.42,SSW,195,0.0,1.0,59,0.00,,BKN080,0.00,0.00,VWS V14.01,2013-01-23 07:59:00,
2013-01-23 02:00:00,12.7,1.1,29.42,SSW,196,0.0,0.0,59,0.00,,OVC045,0.00,0.00,VWS V14.01,2013-01-23 08:00:00,
2013-01-23 02:01:00,12.7,1.1,29.42,SSW,196,0.0,0.0,59,0.00,,OVC045,0.00,0.00,VWS V14.01,2013-01-23 08:01:00,
2013-01-23 02:02:00,12.7,1.1,29.42,SSW,196,0.0,1.0,59,0.00,,OVC045,0.00,0.00,VWS V14.01,2013-01-23 08:02:00,
2013-01-23 02:03:00,12.8,1.2,29.42,SSW,195,0.0,0.0,59,0.00,,SCT080,0.00,0.00,VWS V14.01,2013-01-23 08:03:00,
2013-01-23 02:04:00,12.8,1.2,29.42,SSW,196,0.0,0.0,59,0.00,,OVC045,0.00,0.00,VWS V14.01,2013-01-23 08:04:00,
2013-01-23 02:05:00,12.8,1.2,29.42,SSW,195,1.0,1.0,59,0.00,,SCT080,0.00,0.00,VWS V14.01,2013-01-23 08:05:00,
2013-01-23 02:06:00,12.8,1.2,29.42,SSW,196,1.0,1.0,59,0.00,,OVC045,0.00,0.00,VWS V14.01,2013-01-23 08:06:00,
2013-01-23 02:07:00,12.8,1.2,29.42,SSW,196,2.0,2.0,59,0.00,,SCT080,0.00,0.00,VWS V14.01,2013-01-23 08:07:00,
2013-01-23 02:08:00,12.9,1.3,29.42,SSW,196,0.0,2.0,59,0.00,,OVC045,0.00,0.00,VWS V14.01,2013-01-23 08:08:00,
2013-01-23 02:09:00,12.8,1.2,29.42,SSW,196,0.0,0.0,59,0.00,,SCT080,0.00,0.00,VWS V14.01,2013-01-23 08:09:00,
2013-01-23 02:10:00,12.9,1.3,29.42,SSW,195,0.0,1.0,59,0.00,,SCT080,0.00,0.00,VWS V14.01,2013-01-23 08:10:00,
2013-01-23 02:11:00,12.9,1.3,29.42,SSW,195,0.0,1.0,59,0.00,,SCT080,0.00,0.00,VWS V14.01,2013-01-23 08:11:00,
2013-01-23 02:12:00,12.9,1.3,29.42,SSW,195,2.0,2.0,59,0.00,,OVC045,0.00,0.00,VWS V14.01,2013-01-23 08:12:00,
2013-01-23 02:13:00,12.9,1.3,29.42,SSW,196,0.0,2.0,59,0.00,,OVC045,0.00,0.00,VWS V14.01,2013-01-23 08:13:00,
2013-01-23 02:14:00,12.9,1.3,29.42,SSW,196,0.0,0.0,59,0.00,,SCT080,0.00,0.00,VWS V14.01,2013-01-23 08:14:00,
2013-01-23 02:15:00,12.9,1.3,29.42,SSW,196,0.0,0.0,59,0.00,,SCT080,0.00,0.00,VWS V14.01,2013-01-23 08:15:00,
2013-01-23 02:16:00,12.9,1.3,29.42,SSW,196,0.0,0.0,59,0.00,,SCT080,0.00,0.00,VWS V14.01,2013-01-23 08:16:00,
2013-01-23 02:17:00,12.9,1.3,29.42,SSW,195,0.0,0.0,59,0.00,,OVC045,0.00,0.00,VWS V14.01,2013-01-23 08:17:00,
2013-01-23 02:18:00,13.0,1.4,29.42,SSW,195,0.0,1.0,59,0.00,,OVC045,0.00,0.00,VWS V14.01,2013-01-23 08:18:00,
2013-01-23 02:19:00,13.0,1.4,29.42,SSW,196,0.0,0.0,59,0.00,,SCT080,0.00,0.00,VWS V14.01,2013-01-23 08:19:00,
2013-01-23 02:20:00,13.0,1.4,29.42,SSW,196,0.0,1.0,59,0.00,,SCT080,0.00,0.00,VWS V14.01,2013-01-23 08:20:00,
2013-01-23 02:21:00,13.0,1.4,29.42,SSW,196,0.0,0.0,59,0.00,,OVC045,0.00,0.00,VWS V14.01,2013-01-23 08:21:00,
2013-01-23 02:22:00,13.0,1.4,29.42,SSW,196,0.0,1.0,59,0.00,,SCT080,0.00,0.00,VWS V14.01,2013-01-23 08:22:00,
2013-01-23 02:23:00,13.0,1.0,29.42,SSW,196,0.0,2.0,58,0.00,,OVC045,0.00,0.00,VWS V14.01,2013-01-23 08:23:00,
2013-01-23 02:24:00,13.0,1.0,29.42,SSW,195,0.0,0.0,58,0.00,,SCT080,0.00,0.00,VWS V14.01,2013-01-23 08:24:00,
2013-01-23 02:25:00,13.0,1.0,29.42,SSW,196,0.0,0.0,58,0.00,,SCT080,0.00,0.00,VWS V14.01,2013-01-23 08:25:00,
2013-01-23 02:26:00,13.0,1.0,29.42,SSW,196,0.0,1.0,58,0.00,,OVC045,0.00,0.00,VWS V14.01,2013-01-23 08:26:00,
2013-01-23 02:27:00,13.0,1.0,29.42,SSW,196,0.0,1.0,58,0.00,,SCT080,0.00,0.00,VWS V14.01,2013-01-23 08:27:00,
2013-01-23 02:28:00,13.0,1.0,29.42,SSW,196,0.0,0.0,58,0.00,,OVC045,0.00,0.00,VWS V14.01,2013-01-23 08:28:00,
2013-01-23 02:29:00,13.0,1.0,29.42,SSW,196,0.0,3.0,58,0.00,,SCT080,0.00,0.00,VWS V14.01,2013-01-23 08:29:00,
2013-01-23 02:30:00,13.0,1.0,29.42,SSW,196,2.0,2.0,58,0.00,,SCT080,0.00,0.00,VWS V14.01,2013-01-23 08:30:00,
2013-01-23 02:31:00,13.0,1.0,29.42,SSW,196,0.0,2.0,58,0.00,,OVC045,0.00,0.00,VWS V14.01,2013-01-23 08:31:00,
2013-01-23 02:32:00,13.0,1.0,29.42,SSW,196,0.0,2.0,58,0.00,,SCT080,0.00,0.00,VWS V14.01,2013-01-23 08:32:00,
2013-01-23 02:33:00,13.0,1.0,29.42,SSW,196,0.0,0.0,58,0.00,,SCT080,0.00,0.00,VWS V14.01,2013-01-23 08:33:00,
2013-01-23 02:34:00,13.0,1.0,29.42,SSW,195,1.0,1.0,58,0.00,,OVC045,0.00,0.00,VWS V14.01,2013-01-23 08:34:00,
2013-01-23 02:35:00,13.0,1.0,29.42,SSW,196,0.0,1.0,58,0.00,,SCT080,0.00,0.00,VWS V14.01,2013-01-23 08:35:00,
2013-01-23 02:36:00,13.0,1.0,29.42,SSW,196,0.0,1.0,58,0.00,,OVC045,0.00,0.00,VWS V14.01,2013-01-23 08:36:00,
2013-01-23 02:37:00,13.1,1.1,29.42,SSW,196,0.0,1.0,58,0.00,,OVC045,0.00,0.00,VWS V14.01,2013-01-23 08:37:00,
2013-01-23 02:38:00,13.1,1.1,29.42,SSW,195,0.0,0.0,58,0.00,,SCT080,0.00,0.00,VWS V14.01,2013-01-23 08:38:00,
2013-01-23 02:39:00,13.1,1.1,29.41,SSW,196,0.0,1.0,58,0.00,,SCT080,0.00,0.00,VWS V14.01,2013-01-23 08:39:00,
2013-01-23 02:40:00,13.1,1.1,29.42,SSW,196,1.0,1.0,58,0.00,,OVC045,0.00,0.00,VWS V14.01,2013-01-23 08:40:00,
2013-01-23 02:41:00,13.1,1.1,29.41,SSW,196,2.0,3.0,58,0.00,,SCT080,0.00,0.00,VWS V14.01,2013-01-23 08:41:00,
2013-01-23 02:42:00,13.1,1.1,29.42,SSW,195,0.0,2.0,58,0.00,,OVC045,0.00,0.00,VWS V14.01,2013-01-23 08:42:00,
2013-01-23 02:43:00,13.1,1.1,29.41,SSW,195,0.0,0.0,58,0.00,,SCT080,0.00,0.00,VWS V14.01,2013-01-23 08:43:00,
2013-01-23 02:44:00,13.1,1.1,29.41,SSW,195,0.0,0.0,58,0.00,,SCT080,0.00,0.00,VWS V14.01,2013-01-23 08:44:00,
2013-01-23 02:45:00,13.1,1.1,29.41,NW,313,0.0,2.0,58,0.00,,OVC045,0.00,0.00,VWS V14.01,2013-01-23 08:45:00,
2013-01-23 02:46:00,13.1,1.1,29.41,NW,313,0.0,0.0,58,0.00,,OVC045,0.00,0.00,VWS V14.01,2013-01-23 08:46:00,
2013-01-23 02:47:00,13.1,1.1,29.41,SSW,206,0.0,2.0,58,0.00,,SCT080,0.00,0.00,VWS V14.01,2013-01-23 08:47:00,
2013-01-23 02:48:00,13.2,1.2,29.41,SSW,206,0.0,0.0,58,0.00,,OVC045,0.00,0.00,VWS V14.01,2013-01-23 08:48:00,
2013-01-23 02:49:00,13.2,1.2,29.41,SSW,206,0.0,0.0,58,0.00,,OVC045,0.00,0.00,VWS V14.01,2013-01-23 08:49:00,
2013-01-23 02:50:00,13.2,1.2,29.42,SSW,206,1.0,1.0,58,0.00,,SCT080,0.00,0.00,VWS V14.01,2013-01-23 08:50:00,
2013-01-23 02:51:00,13.2,1.2,29.42,SSW,206,0.0,3.0,58,0.00,,OVC045,0.00,0.00,VWS V14.01,2013-01-23 08:51:00,
2013-01-23 02:52:00,13.2,1.2,29.41,SSW,206,0.0,0.0,58,0.00,,SCT080,0.00,0.00,VWS V14.01,2013-01-23 08:52:00,
2013-01-23 02:53:00,13.2,1.2,29.42,SSW,206,1.0,1.0,58,0.00,,OVC045,0.00,0.00,VWS V14.01,2013-01-23 08:53:00,
2013-01-23 02:54:00,13.2,1.2,29.41,SW,231,1.0,3.0,58,0.00,,OVC045,0.00,0.00,VWS V14.01,2013-01-23 08:54:00,
2013-01-23 02:55:00,13.2,0.8,29.41,SW,231,0.0,1.0,57,0.00,,OVC045,0.00,0.00,VWS V14.01,2013-01-23 08:55:00,
2013-01-23 02:56:00,13.2,0.8,29.41,SSW,213,3.0,3.0,57,0.00,,OVC045,0.00,0.00,VWS V14.01,2013-01-23 08:56:00,
2013-01-23 02:57:00,13.2,0.8,29.41,SW,218,0.0,3.0,57,0.00,,SCT080,0.00,0.00,VWS V14.01,2013-01-23 08:57:00,
2013-01-23 02:58:00,13.2,0.8,29.41,SW,218,0.0,3.0,57,0.00,,SCT080,0.00,0.00,VWS V14.01,2013-01-23 08:58:00,
2013-01-23 02:59:00,13.2,0.8,29.41,SW,218,0.0,0.0,57,0.00,,SCT080,0.00,0.00,VWS V14.01,2013-01-23 08:59:00,
2013-01-23 03:00:00,13.2,0.8,29.41,SW,218,0.0,0.0,57,0.00,,OVC045,0.00,0.00,VWS V14.01,2013-01-23 09:00:00,
2013-01-23 03:01:00,13.2,1.2,29.41,SW,218,0.0,0.0,58,0.00,,OVC045,0.00,0.00,VWS V14.01,2013-01-23 09:01:00,
2013-01-23 03:02:00,13.2,0.8,29.41,SW,218,1.0,1.0,57,0.00,,OVC045,0.00,0.00,VWS V14.01,2013-01-23 09:02:00,
2013-01-23 03:03:00,13.2,1.2,29.41,SW,218,0.0,1.0,58,0.00,,OVC045,0.00,0.00,VWS V14.01,2013-01-23 09:03:00,
2013-01-23 03:04:00,13.2,0.8,29.41,SW,218,0.0,1.0,57,0.00,,SCT080,0.00,0.00,VWS V14.01,2013-01-23 09:04:00,
2013-01-23 03:05:00,13.2,1.2,29.41,SW,218,0.0,1.0,58,0.00,,OVC045,0.00,0.00,VWS V14.01,2013-01-23 09:05:00,
2013-01-23 03:06:00,13.2,1.2,29.41,SW,218,1.0,1.0,58,0.00,,SCT080,0.00,0.00,VWS V14.01,2013-01-23 09:06:00,
2013-01-23 03:07:00,13.2,1.2,29.41,SW,218,1.0,2.0,58,0.00,,SCT080,0.00,0.00,VWS V14.01,2013-01-23 09:07:00,
2013-01-23 03:08:00,13.2,0.8,29.41,SW,218,0.0,1.0,57,0.00,,OVC045,0.00,0.00,VWS V14.01,2013-01-23 09:08:00,
2013-01-23 03:09:00,13.2,1.2,29.41,SW,218,0.0,0.0,58,0.00,,OVC045,0.00,0.00,VWS V14.01,2013-01-23 09:09:00,
2013-01-23 03:10:00,13.2,0.8,29.41,SW,218,2.0,2.0,57,0.00,,OVC045,0.00,0.00,VWS V14.01,2013-01-23 09:10:00,
2013-01-23 03:11:00,13.2,0.8,29.41,SW,218,0.0,2.0,57,0.00,,OVC045,0.00,0.00,VWS V14.01,2013-01-23 09:11:00,
2013-01-23 03:12:00,13.2,0.8,29.41,SW,218,0.0,2.0,57,0.00,,SCT080,0.00,0.00,VWS V14.01,2013-01-23 09:12:00,
2013-01-23 03:13:00,13.2,0.8,29.41,SW,218,0.0,1.0,57,0.00,,SCT080,0.00,0.00,VWS V14.01,2013-01-23 09:13:00,
2013-01-23 03:14:00,13.2,0.8,29.41,SW,218,3.0,3.0,57,0.00,,OVC045,0.00,0.00,VWS V14.01,2013-01-23 09:14:00,
2013-01-23 03:15:00,13.2,0.8,29.41,SW,218,0.0,3.0,57,0.00,,OVC045,0.00,0.00,VWS V14.01,2013-01-23 09:15:00,
2013-01-23 03:16:00,13.2,0.8,29.41,SW,218,0.0,0.0,57,0.00,,OVC045,0.00,0.00,VWS V14.01,2013-01-23 09:16:00,
2013-01-23 03:17:00,13.2,1.2,29.41,SW,218,2.0,2.0,58,0.00,,OVC045,0.00,0.00,VWS V14.01,2013-01-23 09:17:00,
2013-01-23 03:18:00,13.2,1.2,29.41,SW,218,0.0,2.0,58,0.00,,SCT080,0.00,0.00,VWS V14.01,2013-01-23 09:18:00,
2013-01-23 03:19:00,13.2,0.8,29.40,SW,218,0.0,0.0,57,0.00,,SCT080,0.00,0.00,VWS V14.01,2013-01-23 09:19:00,
2013-01-23 03:20:00,13.2,1.2,29.40,SW,218,1.0,1.0,58,0.00,,SCT080,0.00,0.00,VWS V14.01,2013-01-23 09:20:00,
2013-01-23 03:21:00,13.3,1.3,29.40,SW,218,0.0,1.0,58,0.00,,OVC045,0.00,0.00,VWS V14.01,2013-01-23 09:21:00,
2013-01-23 03:22:00,13.3,1.3,29.40,SW,218,0.0,0.0,58,0.00,,OVC045,0.00,0.00,VWS V14.01,2013-01-23 09:22:00,
2013-01-23 03:23:00,13.3,1.3,29.40,SW,218,0.0,1.0,58,0.00,,SCT080,0.00,0.00,VWS V14.01,2013-01-23 09:23:00,
2013-01-23 03:24:00,13.3,1.3,29.40,SW,218,0.0,0.0,58,0.00,,SCT080,0.00,0.00,VWS V14.01,2013-01-23 09:24:00,
2013-01-23 03:25:00,13.4,1.4,29.40,SW,218,0.0,0.0,58,0.00,,SCT080,0.00,0.00,VWS V14.01,2013-01-23 09:25:00,
2013-01-23 03:26:00,13.4,1.8,29.40,SW,218,0.0,1.0,59,0.00,,OVC045,0.00,0.00,VWS V14.01,2013-01-23 09:26:00,
2013-01-23 03:27:00,13.4,1.8,29.40,SW,218,0.0,1.0,59,0.00,,OVC045,0.00,0.00,VWS V14.01,2013-01-23 09:27:00,
2013-01-23 03:28:00,13.4,1.8,29.40,SW,218,0.0,1.0,59,0.00,,OVC045,0.00,0.00,VWS V14.01,2013-01-23 09:28:00,
2013-01-23 03:29:00,13.4,1.8,29.40,SW,218,0.0,0.0,59,0.00,,OVC045,0.00,0.00,VWS V14.01,2013-01-23 09:29:00,
2013-01-23 03:30:00,13.4,1.8,29.40,SW,218,0.0,0.0,59,0.00,,OVC045,0.00,0.00,VWS V14.01,2013-01-23 09:30:00,
2013-01-23 03:31:00,13.4,1.8,29.41,SW,218,0.0,0.0,59,0.00,,OVC045,0.00,0.00,VWS V14.01,2013-01-23 09:31:00,
2013-01-23 03:32:00,13.4,1.8,29.40,WSW,240,2.0,3.0,59,0.00,,SCT080,0.00,0.00,VWS V14.01,2013-01-23 09:32:00,
2013-01-23 03:33:00,13.4,1.8,29.40,WSW,240,1.0,3.0,59,0.00,,OVC045,0.00,0.00,VWS V14.01,2013-01-23 09:33:00,
2013-01-23 03:34:00,13.4,1.8,29.40,WSW,240,0.0,2.0,59,0.00,,SCT080,0.00,0.00,VWS V14.01,2013-01-23 09:34:00,
2013-01-23 03:35:00,13.4,1.8,29.40,WSW,240,1.0,1.0,59,0.00,,OVC045,0.00,0.00,VWS V14.01,2013-01-23 09:35:00,
2013-01-23 03:36:00,13.3,1.7,29.40,WSW,240,0.0,2.0,59,0.00,,OVC045,0.00,0.00,VWS V14.01,2013-01-23 09:36:00,
2013-01-23 03:37:00,13.3,1.7,29.40,WSW,240,0.0,0.0,59,0.00,,OVC045,0.00,0.00,VWS V14.01,2013-01-23 09:37:00,
2013-01-23 03:38:00,13.3,1.7,29.40,WSW,240,0.0,0.0,59,0.00,,SCT080,0.00,0.00,VWS V14.01,2013-01-23 09:38:00,
2013-01-23 03:39:00,13.3,1.7,29.40,WSW,240,0.0,0.0,59,0.00,,SCT080,0.00,0.00,VWS V14.01,2013-01-23 09:39:00,
2013-01-23 03:40:00,13.3,1.7,29.40,WSW,240,0.0,0.0,59,0.00,,SCT080,0.00,0.00,VWS V14.01,2013-01-23 09:40:00,
2013-01-23 03:41:00,13.4,1.8,29.40,WSW,240,0.0,1.0,59,0.00,,OVC045,0.00,0.00,VWS V14.01,2013-01-23 09:41:00,
2013-01-23 03:42:00,13.4,1.8,29.40,WSW,240,0.0,0.0,59,0.00,,SCT080,0.00,0.00,VWS V14.01,2013-01-23 09:42:00,
2013-01-23 03:43:00,13.4,1.8,29.40,WSW,240,0.0,0.0,59,0.00,,OVC045,0.00,0.00,VWS V14.01,2013-01-23 09:43:00,
2013-01-23 03:44:00,13.4,1.8,29.40,WSW,240,0.0,0.0,59,0.00,,SCT080,0.00,0.00,VWS V14.01,2013-01-23 09:44:00,
2013-01-23 03:45:00,13.4,1.4,29.40,WSW,240,0.0,0.0,58,0.00,,OVC045,0.00,0.00,VWS V14.01,2013-01-23 09:45:00,
2013-01-23 03:46:00,13.4,1.4,29.40,WSW,240,0.0,1.0,58,0.00,,SCT080,0.00,0.00,VWS V14.01,2013-01-23 09:46:00,
2013-01-23 03:47:00,13.4,1.4,29.40,WSW,240,2.0,2.0,58,0.00,,SCT080,0.00,0.00,VWS V14.01,2013-01-23 09:47:00,
2013-01-23 03:48:00,13.4,1.4,29.39,WSW,240,0.0,2.0,58,0.00,,OVC045,0.00,0.00,VWS V14.01,2013-01-23 09:48:00,
2013-01-23 03:49:00,13.4,1.4,29.39,WSW,240,0.0,0.0,58,0.00,,SCT080,0.00,0.00,VWS V14.01,2013-01-23 09:49:00,
2013-01-23 03:50:00,13.4,1.4,29.39,WSW,240,0.0,1.0,58,0.00,,SCT080,0.00,0.00,VWS V14.01,2013-01-23 09:50:00,
2013-01-23 03:51:00,13.4,1.4,29.39,WSW,240,0.0,2.0,58,0.00,,OVC045,0.00,0.00,VWS V14.01,2013-01-23 09:51:00,
2013-01-23 03:52:00,13.4,1.4,29.39,WSW,240,0.0,1.0,58,0.00,,OVC045,0.00,0.00,VWS V14.01,2013-01-23 09:52:00,
2013-01-23 03:53:00,13.4,1.4,29.39,WSW,240,0.0,1.0,58,0.00,,OVC045,0.00,0.00,VWS V14.01,2013-01-23 09:53:00,
2013-01-23 03:54:00,13.4,1.4,29.39,WSW,240,0.0,1.0,58,0.00,,SCT080,0.00,0.00,VWS V14.01,2013-01-23 09:54:00,
2013-01-23 03:55:00,13.4,1.4,29.40,WSW,240,0.0,0.0,58,0.00,,OVC045,0.00,0.00,VWS V14.01,2013-01-23 09:55:00,
2013-01-23 03:56:00,13.4,1.4,29.40,WSW,240,0.0,0.0,58,0.00,,SCT080,0.00,0.00,VWS V14.01,2013-01-23 09:56:00,
2013-01-23 03:57:00,13.4,1.4,29.40,WSW,240,1.0,1.0,58,0.00,,SCT080,0.00,0.00,VWS V14.01,2013-01-23 09:57:00,
2013-01-23 03:58:00,13.4,1.4,29.40,WSW,240,0.0,2.0,58,0.00,,OVC045,0.00,0.00,VWS V14.01,2013-01-23 09:58:00,
2013-01-23 03:59:00,13.4,1.4,29.40,WSW,240,0.0,2.0,58,0.00,,SCT080,0.00,0.00,VWS V14.01,2013-01-23 09:59:00,
2013-01-23 04:00:00,13.4,1.4,29.40,WSW,240,1.0,1.0,58,0.00,,OVC045,0.00,0.00,VWS V14.01,2013-01-23 10:00:00,
2013-01-23 04:01:00,13.4,1.4,29.40,SW,222,0.0,2.0,58,0.00,,OVC070,0.00,0.00,VWS V14.01,2013-01-23 10:01:00,
2013-01-23 04:02:00,13.4,1.4,29.40,SW,222,0.0,3.0,58,0.00,,OVC045,0.00,0.00,VWS V14.01,2013-01-23 10:02:00,
2013-01-23 04:03:00,13.4,1.4,29.40,SW,222,0.0,0.0,58,0.00,,OVC045,0.00,0.00,VWS V14.01,2013-01-23 10:03:00,
2013-01-23 04:04:00,13.4,1.4,29.40,SW,222,0.0,0.0,58,0.00,,OVC045,0.00,0.00,VWS V14.01,2013-01-23 10:04:00,
2013-01-23 04:05:00,13.4,1.4,29.40,NW,308,3.0,5.0,58,0.00,,OVC070,0.00,0.00,VWS V14.01,2013-01-23 10:05:00,
2013-01-23 04:06:00,13.4,1.4,29.40,NW,308,0.0,3.0,58,0.00,,OVC070,0.00,0.00,VWS V14.01,2013-01-23 10:06:00,
2013-01-23 04:07:00,13.4,1.4,29.40,NW,308,0.0,0.0,58,0.00,,OVC045,0.00,0.00,VWS V14.01,2013-01-23 10:07:00,
2013-01-23 04:08:00,13.4,1.4,29.40,NW,307,1.0,1.0,58,0.00,,OVC070,0.00,0.00,VWS V14.01,2013-01-23 10:08:00,
2013-01-23 04:09:00,13.4,1.4,29.40,NW,307,0.0,1.0,58,0.00,,OVC045,0.00,0.00,VWS V14.01,2013-01-23 10:09:00,
2013-01-23 04:10:00,13.4,1.4,29.40,NW,308,0.0,0.0,58,0.00,,OVC045,0.00,0.00,VWS V14.01,2013-01-23 10:10:00,
2013-01-23 04:11:00,13.4,1.4,29.40,NW,308,0.0,2.0,58,0.00,,OVC045,0.00,0.00,VWS V14.01,2013-01-23 10:11:00,
2013-01-23 04:12:00,13.4,1.4,29.40,SW,219,2.0,3.0,58,0.00,,OVC070,0.00,0.00,VWS V14.01,2013-01-23 10:12:00,
2013-01-23 04:13:00,13.4,1.4,29.40,SW,219,0.0,2.0,58,0.00,,OVC070,0.00,0.00,VWS V14.01,2013-01-23 10:13:00,
2013-01-23 04:14:00,13.4,1.4,29.40,SW,218,0.0,0.0,58,0.00,,OVC045,0.00,0.00,VWS V14.01,2013-01-23 10:14:00,
2013-01-23 04:15:00,13.4,1.4,29.40,WSW,244,1.0,3.0,58,0.00,,OVC045,0.00,0.00,VWS V14.01,2013-01-23 10:15:00,
2013-01-23 04:16:00,13.4,1.4,29.40,WSW,244,0.0,1.0,58,0.00,,OVC070,0.00,0.00,VWS V14.01,2013-01-23 10:16:00,
2013-01-23 04:17:00,13.4,1.4,29.39,WSW,244,1.0,2.0,58,0.00,,OVC045,0.00,0.00,VWS V14.01,2013-01-23 10:17:00,
2013-01-23 04:18:00,13.4,1.4,29.39,WSW,244,0.0,1.0,58,0.00,,OVC070,0.00,0.00,VWS V14.01,2013-01-23 10:18:00,
2013-01-23 04:19:00,13.4,1.4,29.40,SSW,194,1.0,2.0,58,0.00,,OVC045,0.00,0.00,VWS V14.01,2013-01-23 10:19:00,
2013-01-23 04:20:00,13.4,1.4,29.39,SSW,194,0.0,1.0,58,0.00,,OVC070,0.00,0.00,VWS V14.01,2013-01-23 10:20:00,
2013-01-23 04:21:00,13.4,1.4,29.40,SSW,194,0.0,2.0,58,0.00,,OVC045,0.00,0.00,VWS V14.01,2013-01-23 10:21:00,
2013-01-23 04:22:00,13.4,1.4,29.40,SSW,194,0.0,2.0,58,0.00,,OVC070,0.00,0.00,VWS V14.01,2013-01-23 10:22:00,
2013-01-23 04:23:00,13.4,1.4,29.40,SSW,194,0.0,1.0,58,0.00,,OVC045,0.00,0.00,VWS V14.01,2013-01-23 10:23:00,
2013-01-23 04:24:00,13.4,1.4,29.40,SSW,194,1.0,1.0,58,0.00,,OVC070,0.00,0.00,VWS V14.01,2013-01-23 10:24:00,
2013-01-23 04:25:00,13.4,1.4,29.40,SSW,194,3.0,3.0,58,0.00,,OVC045,0.00,0.00,VWS V14.01,2013-01-23 10:25:00,
2013-01-23 04:26:00,13.4,1.4,29.40,SSW,194,2.0,3.0,58,0.00,,OVC045,0.00,0.00,VWS V14.01,2013-01-23 10:26:00,
2013-01-23 04:27:00,13.4,1.4,29.39,SSW,194,0.0,2.0,58,0.00,,OVC045,0.00,0.00,VWS V14.01,2013-01-23 10:27:00,
2013-01-23 04:28:00,13.4,1.4,29.39,SSW,194,0.0,1.0,58,0.00,,OVC045,0.00,0.00,VWS V14.01,2013-01-23 10:28:00,
2013-01-23 04:29:00,13.4,1.4,29.39,SSW,194,0.0,0.0,58,0.00,,OVC070,0.00,0.00,VWS V14.01,2013-01-23 10:29:00,
2013-01-23 04:30:00,13.4,1.4,29.39,SSW,194,0.0,0.0,58,0.00,,OVC070,0.00,0.00,VWS V14.01,2013-01-23 10:30:00,
2013-01-23 04:31:00,13.4,1.4,29.39,SSW,201,1.0,3.0,58,0.00,,OVC045,0.00,0.00,VWS V14.01,2013-01-23 10:31:00,
2013-01-23 04:32:00,13.4,1.4,29.39,SSW,201,1.0,1.0,58,0.00,,OVC070,0.00,0.00,VWS V14.01,2013-01-23 10:32:00,
2013-01-23 04:33:00,13.4,1.4,29.39,SSW,201,0.0,1.0,58,0.00,,OVC045,0.00,0.00,VWS V14.01,2013-01-23 10:33:00,
2013-01-23 04:34:00,13.4,1.4,29.39,SSW,201,0.0,1.0,58,0.00,,OVC070,0.00,0.00,VWS V14.01,2013-01-23 10:34:00,
2013-01-23 04:35:00,13.4,1.4,29.39,SSW,201,0.0,0.0,58,0.00,,OVC070,0.00,0.00,VWS V14.01,2013-01-23 10:35:00,
2013-01-23 04:36:00,13.4,1.4,29.39,SSW,201,0.0,0.0,58,0.00,,OVC045,0.00,0.00,VWS V14.01,2013-01-23 10:36:00,
2013-01-23 04:37:00,13.4,1.4,29.39,SSW,201,0.0,1.0,58,0.00,,OVC045,0.00,0.00,VWS V14.01,2013-01-23 10:37:00,
2013-01-23 04:38:00,13.4,1.4,29.39,SSW,201,0.0,0.0,58,0.00,,OVC070,0.00,0.00,VWS V14.01,2013-01-23 10:38:00,
2013-01-23 04:39:00,13.4,1.4,29.39,SSW,201,0.0,0.0,58,0.00,,OVC070,0.00,0.00,VWS V14.01,2013-01-23 10:39:00,
2013-01-23 04:40:00,13.4,1.4,29.39,SSW,201,0.0,0.0,58,0.00,,OVC045,0.00,0.00,VWS V14.01,2013-01-23 10:40:00,
2013-01-23 04:41:00,13.4,1.4,29.39,SSW,200,0.0,0.0,58,0.00,,OVC045,0.00,0.00,VWS V14.01,2013-01-23 10:41:00,
2013-01-23 04:42:00,13.5,1.5,29.39,SSW,201,0.0,1.0,58,0.00,,OVC070,0.00,0.00,VWS V14.01,2013-01-23 10:42:00,
2013-01-23 04:43:00,13.5,1.5,29.39,SSW,201,0.0,1.0,58,0.00,,OVC045,0.00,0.00,VWS V14.01,2013-01-23 10:43:00,
2013-01-23 04:44:00,13.5,1.9,29.39,SSW,201,0.0,0.0,59,0.00,,OVC045,0.00,0.00,VWS V14.01,2013-01-23 10:44:00,
2013-01-23 04:45:00,13.5,1.5,29.39,SSW,201,0.0,0.0,58,0.00,,OVC045,0.00,0.00,VWS V14.01,2013-01-23 10:45:00,
2013-01-23 04:46:00,13.5,1.5,29.39,SSW,200,0.0,0.0,58,0.00,,OVC070,0.00,0.00,VWS V14.01,2013-01-23 10:46:00,
2013-01-23 04:47:00,13.5,1.5,29.39,SSW,200,0.0,0.0,58,0.00,,OVC070,0.00,0.00,VWS V14.01,2013-01-23 10:47:00,
2013-01-23 04:48:00,13.5,1.5,29.39,SSW,200,0.0,2.0,58,0.00,,OVC070,0.00,0.00,VWS V14.01,2013-01-23 10:48:00,
2013-01-23 04:49:00,13.5,1.5,29.39,SSW,200,0.0,2.0,58,0.00,,OVC045,0.00,0.00,VWS V14.01,2013-01-23 10:49:00,
2013-01-23 04:50:00,13.5,1.5,29.39,SSW,201,0.0,1.0,58,0.00,,OVC045,0.00,0.00,VWS V14.01,2013-01-23 10:50:00,
2013-01-23 04:51:00,13.5,1.5,29.39,SSW,201,0.0,1.0,58,0.00,,OVC045,0.00,0.00,VWS V14.01,2013-01-23 10:51:00,
2013-01-23 04:52:00,13.5,1.5,29.38,SSW,201,0.0,0.0,58,0.00,,OVC070,0.00,0.00,VWS V14.01,2013-01-23 10:52:00,
2013-01-23 04:53:00,13.5,1.5,29.38,SSW,200,0.0,0.0,58,0.00,,OVC070,0.00,0.00,VWS V14.01,2013-01-23 10:53:00,
2013-01-23 04:54:00,13.5,1.5,29.38,SSW,200,0.0,0.0,58,0.00,,OVC070,0.00,0.00,VWS V14.01,2013-01-23 10:54:00,
2013-01-23 04:55:00,13.5,1.5,29.38,SSW,200,0.0,0.0,58,0.00,,OVC045,0.00,0.00,VWS V14.01,2013-01-23 10:55:00,
2013-01-23 04:56:00,13.5,1.1,29.38,SSW,201,0.0,0.0,57,0.00,,OVC045,0.00,0.00,VWS V14.01,2013-01-23 10:56:00,
2013-01-23 04:57:00,13.4,1.4,29.38,SSW,201,0.0,0.0,58,0.00,,OVC045,0.00,0.00,VWS V14.01,2013-01-23 10:57:00,
2013-01-23 04:58:00,13.5,1.5,29.38,SSW,201,0.0,0.0,58,0.00,,OVC070,0.00,0.00,VWS V14.01,2013-01-23 10:58:00,
2013-01-23 04:59:00,13.5,1.5,29.38,SSW,200,0.0,0.0,58,0.00,,OVC070,0.00,0.00,VWS V14.01,2013-01-23 10:59:00,
2013-01-23 05:00:00,13.5,1.5,29.38,SSW,200,0.0,0.0,58,0.00,,OVC045,0.00,0.00,VWS V14.01,2013-01-23 11:00:00,
2013-01-23 05:01:00,13.5,1.5,29.38,SSW,200,0.0,3.0,58,0.00,,OVC055,0.00,0.00,VWS V14.01,2013-01-23 11:01:00,
2013-01-23 05:02:00,13.5,1.5,29.38,West,280,1.0,1.0,58,0.00,,OVC045,0.00,0.00,VWS V14.01,2013-01-23 11:02:00,
2013-01-23 05:03:00,13.5,1.5,29.38,West,281,0.0,1.0,58,0.00,,OVC045,0.00,0.00,VWS V14.01,2013-01-23 11:03:00,
2013-01-23 05:04:00,13.5,1.5,29.38,West,281,0.0,0.0,58,0.00,,OVC055,0.00,0.00,VWS V14.01,2013-01-23 11:04:00,
2013-01-23 05:05:00,13.5,1.5,29.38,West,267,0.0,1.0,58,0.00,,OVC045,0.00,0.00,VWS V14.01,2013-01-23 11:05:00,
2013-01-23 05:06:00,13.5,1.1,29.38,West,267,0.0,1.0,57,0.00,,OVC055,0.00,0.00,VWS V14.01,2013-01-23 11:06:00,
2013-01-23 05:07:00,13.5,1.1,29.38,West,267,0.0,1.0,57,0.00,,OVC055,0.00,0.00,VWS V14.01,2013-01-23 11:07:00,
2013-01-23 05:08:00,13.5,1.1,29.38,West,267,0.0,1.0,57,0.00,,OVC045,0.00,0.00,VWS V14.01,2013-01-23 11:08:00,
2013-01-23 05:09:00,13.5,1.1,29.39,West,267,0.0,0.0,57,0.00,,OVC045,0.00,0.00,VWS V14.01,2013-01-23 11:09:00,
2013-01-23 05:10:00,13.5,1.1,29.39,West,267,0.0,0.0,57,0.00,,OVC055,0.00,0.00,VWS V14.01,2013-01-23 11:10:00,
2013-01-23 05:11:00,13.5,1.1,29.39,West,267,0.0,0.0,57,0.00,,OVC045,0.00,0.00,VWS V14.01,2013-01-23 11:11:00,
2013-01-23 05:12:00,13.6,1.2,29.39,West,267,0.0,1.0,57,0.00,,OVC055,0.00,0.00,VWS V14.01,2013-01-23 11:12:00,
2013-01-23 05:13:00,13.6,1.2,29.39,West,267,0.0,0.0,57,0.00,,OVC045,0.00,0.00,VWS V14.01,2013-01-23 11:13:00,
2013-01-23 05:14:00,13.6,1.2,29.39,West,267,0.0,1.0,57,0.00,,OVC045,0.00,0.00,VWS V14.01,2013-01-23 11:14:00,
2013-01-23 05:15:00,13.6,1.2,29.39,West,267,0.0,0.0,57,0.00,,OVC055,0.00,0.00,VWS V14.01,2013-01-23 11:15:00,
2013-01-23 05:16:00,13.6,1.2,29.39,West,267,0.0,0.0,57,0.00,,OVC055,0.00,0.00,VWS V14.01,2013-01-23 11:16:00,
2013-01-23 05:17:00,13.6,1.2,29.38,West,267,0.0,0.0,57,0.00,,OVC045,0.00,0.00,VWS V14.01,2013-01-23 11:17:00,
2013-01-23 05:18:00,13.6,1.2,29.39,West,267,0.0,2.0,57,0.00,,OVC055,0.00,0.00,VWS V14.01,2013-01-23 11:18:00,
2013-01-23 05:19:00,13.6,1.2,29.39,West,267,0.0,0.0,57,0.00,,OVC045,0.00,0.00,VWS V14.01,2013-01-23 11:19:00,
2013-01-23 05:20:00,13.7,1.3,29.38,West,267,0.0,1.0,57,0.00,,OVC045,0.00,0.00,VWS V14.01,2013-01-23 11:20:00,
2013-01-23 05:21:00,13.6,1.2,29.38,West,267,0.0,0.0,57,0.00,,OVC045,0.00,0.00,VWS V14.01,2013-01-23 11:21:00,
2013-01-23 05:22:00,13.6,1.2,29.38,West,267,0.0,1.0,57,0.00,,OVC045,0.00,0.00,VWS V14.01,2013-01-23 11:22:00,
2013-01-23 05:23:00,13.7,1.3,29.38,West,267,0.0,0.0,57,0.00,,OVC055,0.00,0.00,VWS V14.01,2013-01-23 11:23:00,
2013-01-23 05:24:00,13.7,1.3,29.38,West,267,2.0,2.0,57,0.00,,OVC055,0.00,0.00,VWS V14.01,2013-01-23 11:24:00,
2013-01-23 05:25:00,13.7,1.3,29.39,West,267,0.0,2.0,57,0.00,,OVC045,0.00,0.00,VWS V14.01,2013-01-23 11:25:00,
2013-01-23 05:26:00,13.7,1.3,29.38,West,267,0.0,1.0,57,0.00,,OVC045,0.00,0.00,VWS V14.01,2013-01-23 11:26:00,
2013-01-23 05:27:00,13.7,1.3,29.39,West,267,0.0,0.0,57,0.00,,OVC055,0.00,0.00,VWS V14.01,2013-01-23 11:27:00,
2013-01-23 05:28:00,13.7,1.3,29.39,West,267,0.0,1.0,57,0.00,,OVC055,0.00,0.00,VWS V14.01,2013-01-23 11:28:00,
2013-01-23 05:29:00,13.7,1.3,29.39,West,267,1.0,1.0,57,0.00,,OVC045,0.00,0.00,VWS V14.01,2013-01-23 11:29:00,
2013-01-23 05:30:00,13.7,1.3,29.39,West,267,0.0,1.0,57,0.00,,OVC045,0.00,0.00,VWS V14.01,2013-01-23 11:30:00,
2013-01-23 05:31:00,13.7,1.3,29.39,West,267,0.0,2.0,57,0.00,,OVC055,0.00,0.00,VWS V14.01,2013-01-23 11:31:00,
2013-01-23 05:32:00,13.7,1.3,29.38,West,267,1.0,1.0,57,0.00,,OVC055,0.00,0.00,VWS V14.01,2013-01-23 11:32:00,
2013-01-23 05:33:00,13.7,1.3,29.38,West,267,0.0,1.0,57,0.00,,OVC055,0.00,0.00,VWS V14.01,2013-01-23 11:33:00,
2013-01-23 05:34:00,13.7,1.3,29.38,West,267,0.0,1.0,57,0.00,,OVC055,0.00,0.00,VWS V14.01,2013-01-23 11:34:00,
2013-01-23 05:35:00,13.7,1.3,29.38,West,267,0.0,0.0,57,0.00,,OVC045,0.00,0.00,VWS V14.01,2013-01-23 11:35:00,
2013-01-23 05:36:00,13.7,1.3,29.38,West,267,0.0,1.0,57,0.00,,OVC045,0.00,0.00,VWS V14.01,2013-01-23 11:36:00,
2013-01-23 05:37:00,13.7,1.7,29.38,West,267,0.0,0.0,58,0.00,,OVC045,0.00,0.00,VWS V14.01,2013-01-23 11:37:00,
2013-01-23 05:38:00,13.7,1.7,29.38,West,267,0.0,0.0,58,0.00,,OVC045,0.00,0.00,VWS V14.01,2013-01-23 11:38:00,
2013-01-23 05:39:00,13.8,1.8,29.38,West,267,0.0,0.0,58,0.00,,OVC055,0.00,0.00,VWS V14.01,2013-01-23 11:39:00,
2013-01-23 05:40:00,13.8,1.8,29.38,West,267,2.0,2.0,58,0.00,,OVC055,0.00,0.00,VWS V14.01,2013-01-23 11:40:00,
2013-01-23 05:41:00,13.8,1.4,29.38,West,267,0.0,2.0,57,0.00,,OVC055,0.00,0.00,VWS V14.01,2013-01-23 11:41:00,
2013-01-23 05:42:00,13.8,1.4,29.38,West,267,0.0,0.0,57,0.00,,OVC045,0.00,0.00,VWS V14.01,2013-01-23 11:42:00,
2013-01-23 05:43:00,13.8,1.4,29.38,West,267,0.0,1.0,57,0.00,,OVC045,0.00,0.00,VWS V14.01,2013-01-23 11:43:00,
2013-01-23 05:44:00,13.8,1.4,29.38,West,267,0.0,0.0,57,0.00,,OVC055,0.00,0.00,VWS V14.01,2013-01-23 11:44:00,
2013-01-23 05:45:00,13.8,1.4,29.38,West,267,0.0,0.0,57,0.00,,OVC055,0.00,0.00,VWS V14.01,2013-01-23 11:45:00,
2013-01-23 05:46:00,13.8,1.8,29.37,West,267,0.0,0.0,58,0.00,,OVC045,0.00,0.00,VWS V14.01,2013-01-23 11:46:00,
2013-01-23 05:47:00,13.8,1.8,29.38,SSE,165,0.0,1.0,58,0.00,,OVC055,0.00,0.00,VWS V14.01,2013-01-23 11:47:00,
2013-01-23 05:48:00,13.8,1.8,29.38,SSE,165,0.0,1.0,58,0.00,,OVC055,0.00,0.00,VWS V14.01,2013-01-23 11:48:00,
2013-01-23 05:49:00,13.9,1.9,29.38,SSE,165,0.0,2.0,58,0.00,,OVC055,0.00,0.00,VWS V14.01,2013-01-23 11:49:00,
2013-01-23 05:50:00,13.9,1.9,29.38,SSE,165,0.0,0.0,58,0.00,,OVC045,0.00,0.00,VWS V14.01,2013-01-23 11:50:00,
2013-01-23 05:51:00,13.8,1.8,29.38,SSE,165,0.0,0.0,58,0.00,,OVC045,0.00,0.00,VWS V14.01,2013-01-23 11:51:00,
2013-01-23 05:52:00,13.9,1.9,29.38,SSE,165,0.0,0.0,58,0.00,,OVC045,0.00,0.00,VWS V14.01,2013-01-23 11:52:00,
2013-01-23 05:53:00,13.9,1.9,29.38,SSE,165,0.0,0.0,58,0.00,,OVC045,0.00,0.00,VWS V14.01,2013-01-23 11:53:00,
2013-01-23 05:54:00,13.9,1.9,29.38,SSE,165,0.0,0.0,58,0.00,,OVC055,0.00,0.00,VWS V14.01,2013-01-23 11:54:00,
2013-01-23 05:55:00,13.9,1.9,29.38,SSE,165,0.0,0.0,58,0.00,,OVC055,0.00,0.00,VWS V14.01,2013-01-23 11:55:00,
2013-01-23 05:56:00,13.9,2.2,29.38,SSE,165,0.0,0.0,59,0.00,,OVC045,0.00,0.00,VWS V14.01,2013-01-23 11:56:00,
2013-01-23 05:57:00,14.0,2.3,29.38,SSE,165,1.0,2.0,59,0.00,,OVC055,0.00,0.00,VWS V14.01,2013-01-23 11:57:00,
2013-01-23 05:58:00,14.0,2.0,29.38,SSE,165,1.0,2.0,58,0.00,,OVC045,0.00,0.00,VWS V14.01,2013-01-23 11:58:00,
2013-01-23 05:59:00,14.0,2.0,29.38,SSE,165,0.0,1.0,58,0.00,,OVC045,0.00,0.00,VWS V14.01,2013-01-23 11:59:00,
2013-01-23 06:00:00,14.0,2.0,29.38,SSE,165,0.0,0.0,58,0.00,,OVC045,0.00,0.00,VWS V14.01,2013-01-23 12:00:00,
2013-01-23 06:01:00,14.0,2.0,29.38,SSE,165,0.0,0.0,58,0.00,,OVC046,0.00,0.00,VWS V14.01,2013-01-23 12:01:00,
2013-01-23 06:02:00,14.0,2.0,29.38,SSE,165,0.0,0.0,58,0.00,,OVC046,0.00,0.00,VWS V14.01,2013-01-23 12:02:00,
2013-01-23 06:03:00,14.0,2.3,29.38,SSE,165,0.0,1.0,59,0.00,,OVC046,0.00,0.00,VWS V14.01,2013-01-23 12:03:00,
2013-01-23 06:04:00,14.0,2.3,29.38,SSE,165,0.0,0.0,59,0.00,,OVC045,0.00,0.00,VWS V14.01,2013-01-23 12:04:00,
2013-01-23 06:05:00,14.1,2.4,29.38,SSE,165,0.0,0.0,59,0.00,,OVC045,0.00,0.00,VWS V14.01,2013-01-23 12:05:00,
2013-01-23 06:06:00,14.1,2.4,29.38,SSE,165,0.0,0.0,59,0.00,,OVC045,0.00,0.00,VWS V14.01,2013-01-23 12:06:00,
2013-01-23 06:07:00,14.1,2.4,29.38,SSE,165,0.0,0.0,59,0.00,,OVC045,0.00,0.00,VWS V14.01,2013-01-23 12:07:00,
2013-01-23 06:08:00,14.1,2.4,29.38,SSE,165,0.0,0.0,59,0.00,,OVC045,0.00,0.00,VWS V14.01,2013-01-23 12:08:00,
2013-01-23 06:09:00,14.1,2.4,29.38,SSE,165,0.0,1.0,59,0.00,,OVC046,0.00,0.00,VWS V14.01,2013-01-23 12:09:00,
2013-01-23 06:10:00,14.1,2.4,29.38,SSE,165,1.0,1.0,59,0.00,,OVC046,0.00,0.00,VWS V14.01,2013-01-23 12:10:00,
2013-01-23 06:11:00,14.1,2.4,29.38,SW,235,2.0,2.0,59,0.00,,OVC046,0.00,0.00,VWS V14.01,2013-01-23 12:11:00,
2013-01-23 06:12:00,14.1,2.0,29.38,SW,235,0.0,2.0,58,0.00,,OVC045,0.00,0.00,VWS V14.01,2013-01-23 12:12:00,
2013-01-23 06:13:00,14.1,2.0,29.38,SW,235,1.0,2.0,58,0.00,,OVC045,0.00,0.00,VWS V14.01,2013-01-23 12:13:00,
2013-01-23 06:14:00,14.2,2.2,29.38,SW,235,0.0,2.0,58,0.00,,OVC046,0.00,0.00,VWS V14.01,2013-01-23 12:14:00,
2013-01-23 06:15:00,14.1,2.0,29.38,SW,234,0.0,0.0,58,0.00,,OVC045,0.00,0.00,VWS V14.01,2013-01-23 12:15:00,
2013-01-23 06:16:00,14.1,2.0,29.38,SW,234,0.0,0.0,58,0.00,,OVC046,0.00,0.00,VWS V14.01,2013-01-23 12:16:00,
2013-01-23 06:17:00,14.1,2.0,29.38,SW,234,0.0,1.0,58,0.00,,OVC045,0.00,0.00,VWS V14.01,2013-01-23 12:17:00,
2013-01-23 06:18:00,14.1,2.0,29.38,SW,235,1.0,1.0,58,0.00,,OVC045,0.00,0.00,VWS V14.01,2013-01-23 12:18:00,
2013-01-23 06:19:00,14.1,2.0,29.38,SW,235,0.0,3.0,58,0.00,,OVC045,0.00,0.00,VWS V14.01,2013-01-23 12:19:00,
2013-01-23 06:20:00,14.1,2.0,29.38,SW,235,3.0,3.0,58,0.00,,OVC046,0.00,0.00,VWS V14.01,2013-01-23 12:20:00,
2013-01-23 06:21:00,14.1,1.7,29.38,SW,235,1.0,3.0,57,0.00,,OVC045,0.00,0.00,VWS V14.01,2013-01-23 12:21:00,
2013-01-23 06:22:00,14.1,1.7,29.38,SW,234,0.0,1.0,57,0.00,,OVC046,0.00,0.00,VWS V14.01,2013-01-23 12:22:00,
2013-01-23 06:23:00,14.1,1.7,29.38,SW,234,0.0,1.0,57,0.00,,OVC045,0.00,0.00,VWS V14.01,2013-01-23 12:23:00,
2013-01-23 06:24:00,14.1,1.7,29.37,SW,234,0.0,1.0,57,0.00,,OVC045,0.00,0.00,VWS V14.01,2013-01-23 12:24:00,
2013-01-23 06:25:00,14.1,2.0,29.37,SW,235,0.0,0.0,58,0.00,,OVC046,0.00,0.00,VWS V14.01,2013-01-23 12:25:00,
2013-01-23 06:26:00,14.1,2.0,29.37,SW,235,0.0,0.0,58,0.00,,OVC046,0.00,0.00,VWS V14.01,2013-01-23 12:26:00,
2013-01-23 06:27:00,14.1,2.0,29.37,SW,235,0.0,0.0,58,0.00,,OVC045,0.00,0.00,VWS V14.01,2013-01-23 12:27:00,
2013-01-23 06:28:00,14.1,2.0,29.37,SW,235,0.0,2.0,58,0.00,,OVC045,0.00,0.00,VWS V14.01,2013-01-23 12:28:00,
2013-01-23 06:29:00,14.1,2.0,29.37,WSW,244,3.0,3.0,58,0.00,,OVC046,0.00,0.00,VWS V14.01,2013-01-23 12:29:00,
2013-01-23 06:30:00,14.1,2.0,29.37,WSW,244,0.0,3.0,58,0.00,,OVC045,0.00,0.00,VWS V14.01,2013-01-23 12:30:00,
2013-01-23 06:31:00,14.1,2.0,29.37,WSW,244,0.0,0.0,58,0.00,,OVC046,0.00,0.00,VWS V14.01,2013-01-23 12:31:00,
2013-01-23 06:32:00,14.1,2.0,29.37,WSW,244,0.0,1.0,58,0.00,,OVC045,0.00,0.00,VWS V14.01,2013-01-23 12:32:00,
2013-01-23 06:33:00,14.1,2.0,29.37,WSW,244,0.0,0.0,58,0.00,,OVC046,0.00,0.00,VWS V14.01,2013-01-23 12:33:00,
2013-01-23 06:34:00,14.2,2.2,29.37,WSW,244,0.0,1.0,58,0.00,,OVC045,0.00,0.00,VWS V14.01,2013-01-23 12:34:00,
2013-01-23 06:35:00,14.2,2.2,29.37,WSW,244,0.0,0.0,58,0.00,,OVC045,0.00,0.00,VWS V14.01,2013-01-23 12:35:00,
2013-01-23 06:36:00,14.2,2.2,29.37,WSW,244,0.0,2.0,58,0.00,,OVC045,0.00,0.00,VWS V14.01,2013-01-23 12:36:00,
2013-01-23 06:37:00,14.2,2.2,29.37,WSW,244,0.0,1.0,58,0.00,,OVC046,0.00,0.00,VWS V14.01,2013-01-23 12:37:00,
2013-01-23 06:38:00,14.2,2.2,29.37,WSW,244,0.0,0.0,58,0.00,,OVC046,0.00,0.00,VWS V14.01,2013-01-23 12:38:00,
2013-01-23 06:39:00,14.2,2.2,29.37,SSE,164,1.0,2.0,58,0.00,,OVC046,0.00,0.00,VWS V14.01,2013-01-23 12:39:00,
2013-01-23 06:40:00,14.2,2.2,29.37,SSE,164,0.0,1.0,58,0.00,,OVC045,0.00,0.00,VWS V14.01,2013-01-23 12:40:00,
2013-01-23 06:41:00,14.2,2.2,29.37,SSE,164,0.0,2.0,58,0.00,,OVC046,0.00,0.00,VWS V14.01,2013-01-23 12:41:00,
2013-01-23 06:42:00,14.3,2.2,29.37,SSE,164,0.0,1.0,58,0.00,,OVC045,0.00,0.00,VWS V14.01,2013-01-23 12:42:00,
2013-01-23 06:43:00,14.3,2.6,29.37,SSE,164,0.0,0.0,59,0.00,,OVC045,0.00,0.00,VWS V14.01,2013-01-23 12:43:00,
2013-01-23 06:44:00,14.2,2.5,29.37,SSE,164,0.0,0.0,59,0.00,,OVC046,0.00,0.00,VWS V14.01,2013-01-23 12:44:00,
2013-01-23 06:45:00,14.3,2.6,29.37,SSE,164,1.0,1.0,59,0.00,,OVC045,0.00,0.00,VWS V14.01,2013-01-23 12:45:00,
2013-01-23 06:46:00,14.3,2.6,29.37,West,267,1.0,2.0,59,0.00,,OVC045,0.00,0.00,VWS V14.01,2013-01-23 12:46:00,
2013-01-23 06:47:00,14.2,2.2,29.37,West,267,1.0,3.0,58,0.00,,OVC045,0.00,0.00,VWS V14.01,2013-01-23 12:47:00,
2013-01-23 06:48:00,14.2,2.2,29.37,West,267,1.0,2.0,58,0.00,,OVC046,0.00,0.00,VWS V14.01,2013-01-23 12:48:00,
2013-01-23 06:49:00,14.2,2.2,29.37,West,267,0.0,1.0,58,0.00,,OVC045,0.00,0.00,VWS V14.01,2013-01-23 12:49:00,
2013-01-23 06:50:00,14.2,2.2,29.37,West,267,2.0,2.0,58,0.00,,OVC046,0.00,0.00,VWS V14.01,2013-01-23 12:50:00,
2013-01-23 06:51:00,14.2,2.2,29.38,West,267,2.0,2.0,58,0.00,,OVC045,0.00,0.00,VWS V14.01,2013-01-23 12:51:00,
2013-01-23 06:52:00,14.1,1.7,29.37,West,267,0.0,2.0,57,0.00,,OVC045,0.00,0.00,VWS V14.01,2013-01-23 12:52:00,
2013-01-23 06:53:00,14.2,1.8,29.37,WSW,237,2.0,3.0,57,0.00,,OVC046,0.00,0.00,VWS V14.01,2013-01-23 12:53:00,
2013-01-23 06:54:00,14.1,1.7,29.37,SW,229,0.0,3.0,57,0.00,,OVC046,0.00,0.00,VWS V14.01,2013-01-23 12:54:00,
2013-01-23 06:55:00,14.1,1.7,29.38,ESE,107,1.0,3.0,57,0.00,,OVC045,0.00,0.00,VWS V14.01,2013-01-23 12:55:00,
2013-01-23 06:56:00,14.1,1.7,29.38,WSW,238,2.0,2.0,57,0.00,,OVC045,0.00,0.00,VWS V14.01,2013-01-23 12:56:00,
2013-01-23 06:57:00,14.1,1.7,29.38,WSW,238,2.0,3.0,57,0.00,,OVC046,0.00,0.00,VWS V14.01,2013-01-23 12:57:00,
2013-01-23 06:58:00,14.1,1.7,29.38,WSW,238,0.0,2.0,57,0.00,,OVC045,0.00,0.00,VWS V14.01,2013-01-23 12:58:00,
2013-01-23 06:59:00,14.1,1.7,29.38,WSW,238,0.0,2.0,57,0.00,,OVC045,0.00,0.00,VWS V14.01,2013-01-23 12:59:00,
2013-01-23 07:00:00,14.1,1.7,29.38,WSW,238,0.0,1.0,57,0.00,,OVC046,0.00,0.00,VWS V14.01,2013-01-23 13:00:00,
2013-01-23 07:01:00,14.1,1.7,29.38,WSW,238,0.0,1.0,57,0.00,,OVC045,0.00,0.00,VWS V14.01,2013-01-23 13:01:00,
2013-01-23 07:02:00,14.1,1.7,29.38,WSW,238,1.0,1.0,57,0.00,,OVC049,0.00,0.00,VWS V14.01,2013-01-23 13:02:00,
2013-01-23 07:03:00,14.1,1.7,29.38,WSW,238,1.0,2.0,57,0.00,,OVC045,0.00,0.00,VWS V14.01,2013-01-23 13:03:00,
2013-01-23 07:04:00,14.1,1.7,29.38,WSW,238,0.0,1.0,57,0.00,,OVC049,0.00,0.00,VWS V14.01,2013-01-23 13:04:00,
2013-01-23 07:05:00,14.1,1.7,29.38,WSW,238,0.0,0.0,57,0.00,,OVC045,0.00,0.00,VWS V14.01,2013-01-23 13:05:00,
2013-01-23 07:06:00,14.2,1.8,29.37,WSW,238,0.0,0.0,57,0.00,,OVC049,0.00,0.00,VWS V14.01,2013-01-23 13:06:00,
2013-01-23 07:07:00,14.2,1.8,29.38,WSW,238,0.0,0.0,57,0.00,,OVC045,0.00,0.00,VWS V14.01,2013-01-23 13:07:00,
2013-01-23 07:08:00,14.2,2.2,29.38,WSW,238,0.0,1.0,58,0.00,,OVC049,0.00,0.00,VWS V14.01,2013-01-23 13:08:00,
2013-01-23 07:09:00,14.3,2.2,29.38,WSW,238,2.0,3.0,58,0.00,,OVC045,0.00,0.00,VWS V14.01,2013-01-23 13:09:00,
2013-01-23 07:10:00,14.2,1.8,29.38,WSW,244,0.0,3.0,57,0.00,,OVC049,0.00,0.00,VWS V14.01,2013-01-23 13:10:00,
2013-01-23 07:11:00,14.3,1.9,29.38,WSW,244,0.0,1.0,57,0.00,,OVC049,0.00,0.00,VWS V14.01,2013-01-23 13:11:00,
2013-01-23 07:12:00,14.3,1.9,29.38,WSW,244,0.0,1.0,57,0.00,,OVC045,0.00,0.00,VWS V14.01,2013-01-23 13:12:00,
2013-01-23 07:13:00,14.3,1.9,29.38,WSW,244,0.0,1.0,57,0.00,,OVC045,0.00,0.00,VWS V14.01,2013-01-23 13:13:00,
2013-01-23 07:14:00,14.3,1.9,29.38,WSW,244,0.0,2.0,57,0.00,,OVC049,0.00,0.00,VWS V14.01,2013-01-23 13:14:00,
2013-01-23 07:15:00,14.3,1.9,29.38,WSW,244,0.0,1.0,57,0.00,,OVC049,0.00,0.00,VWS V14.01,2013-01-23 13:15:00,
2013-01-23 07:16:00,14.3,1.9,29.38,WSW,244,0.0,1.0,57,0.00,,OVC045,0.00,0.00,VWS V14.01,2013-01-23 13:16:00,
2013-01-23 07:17:00,14.3,1.9,29.38,WSW,244,0.0,0.0,57,0.00,,OVC045,0.00,0.00,VWS V14.01,2013-01-23 13:17:00,
2013-01-23 07:18:00,14.3,1.9,29.38,WSW,244,0.0,0.0,57,0.00,,OVC045,0.00,0.00,VWS V14.01,2013-01-23 13:18:00,
2013-01-23 07:19:00,14.3,2.2,29.38,WSW,244,0.0,0.0,58,0.00,,OVC045,0.00,0.00,VWS V14.01,2013-01-23 13:19:00,
2013-01-23 07:20:00,14.3,2.2,29.38,WSW,244,0.0,0.0,58,0.00,,OVC049,0.00,0.00,VWS V14.01,2013-01-23 13:20:00,
2013-01-23 07:21:00,14.3,2.2,29.37,WSW,244,0.0,0.0,58,0.00,,OVC049,0.00,0.00,VWS V14.01,2013-01-23 13:21:00,
2013-01-23 07:22:00,14.3,2.2,29.37,WSW,244,0.0,0.0,58,0.00,,OVC045,0.00,0.00,VWS V14.01,2013-01-23 13:22:00,
2013-01-23 07:23:00,14.3,2.2,29.37,WSW,244,0.0,0.0,58,0.00,,OVC045,0.00,0.00,VWS V14.01,2013-01-23 13:23:00,
2013-01-23 07:24:00,14.3,2.2,29.37,SE,137,0.0,2.0,58,0.00,,OVC049,0.00,0.00,VWS V14.01,2013-01-23 13:24:00,
2013-01-23 07:25:00,14.4,2.3,29.37,SE,137,0.0,0.0,58,0.00,,OVC045,0.00,0.00,VWS V14.01,2013-01-23 13:25:00,
2013-01-23 07:26:00,14.4,2.3,29.37,SE,137,0.0,1.0,58,0.00,,OVC049,0.00,0.00,VWS V14.01,2013-01-23 13:26:00,
2013-01-23 07:27:00,14.4,2.3,29.37,SE,137,0.0,0.0,58,0.00,,OVC049,0.00,0.00,VWS V14.01,2013-01-23 13:27:00,
2013-01-23 07:28:00,14.4,2.3,29.36,SE,137,0.0,1.0,58,0.00,,OVC045,0.00,0.00,VWS V14.01,2013-01-23 13:28:00,
2013-01-23 07:29:00,14.4,2.3,29.36,SE,137,0.0,1.0,58,0.00,,OVC049,0.00,0.00,VWS V14.01,2013-01-23 13:29:00,
2013-01-23 07:30:00,14.4,2.3,29.36,SE,137,0.0,0.0,58,0.00,,OVC045,0.00,5.00,VWS V14.01,2013-01-23 13:30:00,
2013-01-23 07:31:00,14.5,2.4,29.36,SE,137,0.0,1.0,58,0.00,,OVC045,0.00,5.00,VWS V14.01,2013-01-23 13:31:00,
2013-01-23 07:32:00,14.4,2.3,29.36,South,188,1.0,2.0,58,0.00,,OVC049,0.00,5.00,VWS V14.01,2013-01-23 13:32:00,
2013-01-23 07:33:00,14.4,2.3,29.36,South,189,1.0,1.0,58,0.00,,OVC049,0.00,5.00,VWS V14.01,2013-01-23 13:33:00,
2013-01-23 07:34:00,14.5,2.4,29.36,South,189,0.0,1.0,58,0.00,,OVC045,0.00,5.00,VWS V14.01,2013-01-23 13:34:00,
2013-01-23 07:35:00,14.5,2.4,29.36,South,189,0.0,0.0,58,0.00,,OVC049,0.00,7.00,VWS V14.01,2013-01-23 13:35:00,
2013-01-23 07:36:00,14.5,2.4,29.36,SSW,194,0.0,1.0,58,0.00,,OVC049,0.00,7.00,VWS V14.01,2013-01-23 13:36:00,
2013-01-23 07:37:00,14.5,2.4,29.36,SSW,194,0.0,1.0,58,0.00,,OVC045,0.00,7.00,VWS V14.01,2013-01-23 13:37:00,
2013-01-23 07:38:00,14.5,2.4,29.36,SSW,194,0.0,0.0,58,0.00,,OVC049,0.00,7.00,VWS V14.01,2013-01-23 13:38:00,
2013-01-23 07:39:00,14.5,2.4,29.36,SSW,194,0.0,0.0,58,0.00,,OVC045,0.00,9.00,VWS V14.01,2013-01-23 13:39:00,
2013-01-23 07:40:00,14.6,2.5,29.36,SSW,194,1.0,1.0,58,0.00,,OVC045,0.00,9.00,VWS V14.01,2013-01-23 13:40:00,
2013-01-23 07:41:00,14.6,2.5,29.36,South,186,1.0,1.0,58,0.00,,OVC049,0.00,9.00,VWS V14.01,2013-01-23 13:41:00,
2013-01-23 07:42:00,14.6,2.5,29.36,South,170,1.0,2.0,58,0.00,,OVC045,0.00,11.00,VWS V14.01,2013-01-23 13:42:00,
2013-01-23 07:43:00,14.6,2.2,29.36,South,170,0.0,2.0,57,0.00,,OVC049,0.00,11.00,VWS V14.01,2013-01-23 13:43:00,
2013-01-23 07:44:00,14.6,2.2,29.36,South,169,0.0,0.0,57,0.00,,OVC045,0.00,11.00,VWS V14.01,2013-01-23 13:44:00,
2013-01-23 07:45:00,14.6,2.2,29.36,SSE,148,0.0,1.0,57,0.00,,OVC049,0.00,11.00,VWS V14.01,2013-01-23 13:45:00,
2013-01-23 07:46:00,14.6,2.2,29.36,SSE,148,0.0,0.0,57,0.00,,OVC049,0.00,12.00,VWS V14.01,2013-01-23 13:46:00,
2013-01-23 07:47:00,14.6,2.2,29.36,SSE,148,0.0,0.0,57,0.00,,OVC045,0.00,14.00,VWS V14.01,2013-01-23 13:47:00,
2013-01-23 07:48:00,14.6,2.2,29.36,SSE,148,0.0,1.0,57,0.00,,OVC045,0.00,14.00,VWS V14.01,2013-01-23 13:48:00,
2013-01-23 07:49:00,14.6,2.2,29.36,SSE,148,0.0,0.0,57,0.00,,OVC049,0.00,14.00,VWS V14.01,2013-01-23 13:49:00,
2013-01-23 07:50:00,14.6,2.2,29.36,SSE,148,1.0,1.0,57,0.00,,OVC049,0.00,14.00,VWS V14.01,2013-01-23 13:50:00,
2013-01-23 07:51:00,14.6,2.2,29.36,SSE,148,0.0,1.0,57,0.00,,OVC045,0.00,16.00,VWS V14.01,2013-01-23 13:51:00,
2013-01-23 07:52:00,14.6,2.2,29.36,SSE,148,0.0,0.0,57,0.00,,OVC045,0.00,16.00,VWS V14.01,2013-01-23 13:52:00,
2013-01-23 07:53:00,14.6,2.2,29.36,SSE,149,0.0,2.0,57,0.00,,OVC049,0.00,18.00,VWS V14.01,2013-01-23 13:53:00,
2013-01-23 07:54:00,14.6,2.2,29.36,SSE,149,0.0,0.0,57,0.00,,OVC045,0.00,19.00,VWS V14.01,2013-01-23 13:54:00,
2013-01-23 07:55:00,14.6,2.2,29.36,SSE,149,1.0,4.0,57,0.00,,OVC049,0.00,19.00,VWS V14.01,2013-01-23 13:55:00,
2013-01-23 07:56:00,14.6,2.2,29.36,SSE,149,0.0,1.0,57,0.00,,OVC049,0.00,21.00,VWS V14.01,2013-01-23 13:56:00,
2013-01-23 07:57:00,14.6,2.2,29.36,SSE,149,0.0,0.0,57,0.00,,OVC045,0.00,21.00,VWS V14.01,2013-01-23 13:57:00,
2013-01-23 07:58:00,14.6,2.2,29.36,SSE,149,0.0,0.0,57,0.00,,OVC045,0.00,23.00,VWS V14.01,2013-01-23 13:58:00,
2013-01-23 07:59:00,14.6,2.2,29.36,SSE,149,0.0,1.0,57,0.00,,OVC045,0.00,25.00,VWS V14.01,2013-01-23 13:59:00,
2013-01-23 08:00:00,14.6,2.2,29.36,SSE,149,0.0,0.0,57,0.00,,OVC045,0.00,23.00,VWS V14.01,2013-01-23 14:00:00,
2013-01-23 08:01:00,14.6,2.2,29.35,SSE,149,0.0,0.0,57,0.00,,OVC045,0.00,25.00,VWS V14.01,2013-01-23 14:01:00,
2013-01-23 08:02:00,14.6,2.2,29.35,SSE,149,0.0,1.0,57,0.00,,OVC045,0.00,26.00,VWS V14.01,2013-01-23 14:02:00,
2013-01-23 08:03:00,14.7,2.2,29.35,SSE,149,0.0,0.0,57,0.00,,OVC045,0.00,28.00,VWS V14.01,2013-01-23 14:03:00,
2013-01-23 08:04:00,14.7,2.2,29.35,SSE,149,0.0,0.0,57,0.00,,OVC045,0.00,28.00,VWS V14.01,2013-01-23 14:04:00,
2013-01-23 08:05:00,14.7,1.9,29.35,SSE,149,0.0,1.0,56,0.00,,OVC045,0.00,28.00,VWS V14.01,2013-01-23 14:05:00,
2013-01-23 08:06:00,14.8,2.0,29.35,SSE,161,0.0,2.0,56,0.00,,OVC045,0.00,30.00,VWS V14.01,2013-01-23 14:06:00,
2013-01-23 08:07:00,14.8,2.0,29.35,SSE,162,0.0,0.0,56,0.00,,OVC045,0.00,33.00,VWS V14.01,2013-01-23 14:07:00,
2013-01-23 08:08:00,14.8,2.0,29.35,SSE,162,0.0,1.0,56,0.00,,OVC045,0.00,33.00,VWS V14.01,2013-01-23 14:08:00,
2013-01-23 08:09:00,14.8,2.0,29.35,SSE,164,1.0,2.0,56,0.00,,OVC045,0.00,35.00,VWS V14.01,2013-01-23 14:09:00,
2013-01-23 08:10:00,14.8,2.0,29.35,SSE,164,0.0,1.0,56,0.00,,OVC045,0.00,35.00,VWS V14.01,2013-01-23 14:10:00,
2013-01-23 08:11:00,14.8,2.0,29.35,SSE,164,0.0,0.0,56,0.00,,OVC045,0.00,37.00,VWS V14.01,2013-01-23 14:11:00,
2013-01-23 08:12:00,14.8,2.0,29.35,SSE,164,0.0,0.0,56,0.00,,OVC045,0.00,39.00,VWS V14.01,2013-01-23 14:12:00,
2013-01-23 08:13:00,14.9,2.0,29.35,ESE,118,2.0,2.0,56,0.00,,OVC045,0.00,40.00,VWS V14.01,2013-01-23 14:13:00,
2013-01-23 08:14:00,14.9,2.4,29.35,ESE,114,0.0,2.0,57,0.00,,OVC045,0.00,42.00,VWS V14.01,2013-01-23 14:14:00,
2013-01-23 08:15:00,14.9,2.0,29.35,ESE,114,0.0,0.0,56,0.00,,OVC045,0.00,42.00,VWS V14.01,2013-01-23 14:15:00,
2013-01-23 08:16:00,14.9,2.0,29.35,East,81,0.0,2.0,56,0.00,,OVC045,0.00,42.00,VWS V14.01,2013-01-23 14:16:00,
2013-01-23 08:17:00,15.0,2.1,29.35,SE,128,0.0,1.0,56,0.00,,OVC045,0.00,42.00,VWS V14.01,2013-01-23 14:17:00,
2013-01-23 08:18:00,15.0,2.1,29.35,SE,128,0.0,0.0,56,0.00,,OVC045,0.00,42.00,VWS V14.01,2013-01-23 14:18:00,
2013-01-23 08:19:00,15.0,2.1,29.35,SE,128,0.0,1.0,56,0.00,,OVC045,0.00,46.00,VWS V14.01,2013-01-23 14:19:00,
2013-01-23 08:20:00,15.0,2.1,29.35,SE,128,0.0,0.0,56,0.00,,OVC045,0.00,47.00,VWS V14.01,2013-01-23 14:20:00,
2013-01-23 08:21:00,15.1,2.2,29.35,SE,128,0.0,1.0,56,0.00,,OVC045,0.00,47.00,VWS V14.01,2013-01-23 14:21:00,
2013-01-23 08:22:00,15.1,2.2,29.35,South,184,0.0,1.0,56,0.00,,OVC045,0.00,46.00,VWS V14.01,2013-01-23 14:22:00,
2013-01-23 08:23:00,15.2,2.7,29.35,ESE,121,1.0,1.0,57,0.00,,OVC045,0.00,42.00,VWS V14.01,2013-01-23 14:23:00,
2013-01-23 08:24:00,15.2,2.7,29.36,ESE,121,0.0,1.0,57,0.00,,OVC045,0.00,40.00,VWS V14.01,2013-01-23 14:24:00,
2013-01-23 08:25:00,15.2,2.3,29.35,SSE,164,0.0,4.0,56,0.00,,OVC045,0.00,40.00,VWS V14.01,2013-01-23 14:25:00,
2013-01-23 08:26:00,15.2,2.3,29.35,SSE,168,0.0,1.0,56,0.00,,OVC045,0.00,42.00,VWS V14.01,2013-01-23 14:26:00,
2013-01-23 08:27:00,15.3,2.4,29.35,SSE,148,0.0,4.0,56,0.00,,OVC045,0.00,44.00,VWS V14.01,2013-01-23 14:27:00,
2013-01-23 08:28:00,15.2,2.0,29.36,SSW,211,0.0,2.0,55,0.00,,OVC045,0.00,46.00,VWS V14.01,2013-01-23 14:28:00,
2013-01-23 08:29:00,15.2,2.0,29.36,SSW,211,0.0,0.0,55,0.00,,OVC045,0.00,44.00,VWS V14.01,2013-01-23 14:29:00,
2013-01-23 08:30:00,15.2,2.0,29.36,SSW,211,0.0,1.0,55,0.00,,OVC045,0.00,44.00,VWS V14.01,2013-01-23 14:30:00,
2013-01-23 08:31:00,15.2,2.0,29.36,SSW,211,0.0,0.0,55,0.00,,OVC045,0.00,44.00,VWS V14.01,2013-01-23 14:31:00,
2013-01-23 08:32:00,15.3,2.0,29.36,SSW,211,0.0,0.0,55,0.00,,OVC045,0.00,46.00,VWS V14.01,2013-01-23 14:32:00,
2013-01-23 08:33:00,15.3,2.0,29.36,SSE,149,0.0,1.0,55,0.00,,OVC045,0.00,47.00,VWS V14.01,2013-01-23 14:33:00,
2013-01-23 08:34:00,15.3,2.4,29.36,SE,126,0.0,2.0,56,0.00,,OVC045,0.00,47.00,VWS V14.01,2013-01-23 14:34:00,
2013-01-23 08:35:00,15.3,2.4,29.35,SSW,207,2.0,2.0,56,0.00,,OVC045,0.00,47.00,VWS V14.01,2013-01-23 14:35:00,
2013-01-23 08:36:00,15.3,2.4,29.36,SSW,207,1.0,2.0,56,0.00,,OVC045,0.00,47.00,VWS V14.01,2013-01-23 14:36:00,
2013-01-23 08:37:00,15.4,2.5,29.36,SSW,207,0.0,1.0,56,0.00,,OVC045,0.00,47.00,VWS V14.01,2013-01-23 14:37:00,
2013-01-23 08:38:00,15.4,2.1,29.36,SSW,206,0.0,2.0,55,0.00,,OVC045,0.00,49.00,VWS V14.01,2013-01-23 14:38:00,
2013-01-23 08:39:00,15.4,2.1,29.36,SSW,206,0.0,0.0,55,0.00,,OVC045,0.00,49.00,VWS V14.01,2013-01-23 14:39:00,
2013-01-23 08:40:00,15.4,2.1,29.36,SSW,207,0.0,1.0,55,0.00,,OVC045,0.00,49.00,VWS V14.01,2013-01-23 14:40:00,
2013-01-23 08:41:00,15.4,2.1,29.36,SSW,207,0.0,1.0,55,0.00,,OVC045,0.00,49.00,VWS V14.01,2013-01-23 14:41:00,
2013-01-23 08:42:00,15.4,2.1,29.36,SSW,202,0.0,2.0,55,0.00,,OVC045,0.00,51.00,VWS V14.01,2013-01-23 14:42:00,
2013-01-23 08:43:00,15.5,2.2,29.36,SSW,202,0.0,0.0,55,0.00,,OVC045,0.00,51.00,VWS V14.01,2013-01-23 14:43:00,
2013-01-23 08:44:00,15.5,2.2,29.36,SSW,202,0.0,0.0,55,0.00,,OVC045,0.00,51.00,VWS V14.01,2013-01-23 14:44:00,
2013-01-23 08:45:00,15.5,2.2,29.36,SSW,202,0.0,2.0,55,0.00,,OVC045,0.00,49.00,VWS V14.01,2013-01-23 14:45:00,
2013-01-23 08:46:00,15.6,2.3,29.36,SSW,202,0.0,0.0,55,0.00,,OVC045,0.00,48.00,VWS V14.01,2013-01-23 14:46:00,
2013-01-23 08:47:00,15.6,2.3,29.36,SSW,202,1.0,2.0,55,0.00,,OVC045,0.00,47.00,VWS V14.01,2013-01-23 14:47:00,
2013-01-23 08:48:00,15.6,2.3,29.36,WSW,248,2.0,3.0,55,0.00,,OVC045,0.00,49.00,VWS V14.01,2013-01-23 14:48:00,
2013-01-23 08:49:00,15.6,2.3,29.36,West,270,2.0,3.0,55,0.00,,OVC045,0.00,49.00,VWS V14.01,2013-01-23 14:49:00,
2013-01-23 08:50:00,15.6,2.3,29.36,West,270,0.0,1.0,55,0.00,,OVC045,0.00,49.00,VWS V14.01,2013-01-23 14:50:00,
2013-01-23 08:51:00,15.6,2.3,29.37,West,270,0.0,1.0,55,0.00,,OVC045,0.00,49.00,VWS V14.01,2013-01-23 14:51:00,
2013-01-23 08:52:00,15.6,2.3,29.37,West,270,0.0,1.0,55,0.00,,OVC045,0.00,49.00,VWS V14.01,2013-01-23 14:52:00,
2013-01-23 08:53:00,15.6,2.3,29.37,West,270,0.0,1.0,55,0.00,,OVC045,0.00,49.00,VWS V14.01,2013-01-23 14:53:00,
2013-01-23 08:54:00,15.6,2.3,29.37,West,270,1.0,3.0,55,0.00,,OVC045,0.00,49.00,VWS V14.01,2013-01-23 14:54:00,
2013-01-23 08:55:00,15.6,2.3,29.37,West,270,0.0,2.0,55,0.00,,OVC045,0.00,51.00,VWS V14.01,2013-01-23 14:55:00,
2013-01-23 08:56:00,15.6,2.3,29.37,West,270,2.0,4.0,55,0.00,,OVC045,0.00,51.00,VWS V14.01,2013-01-23 14:56:00,
2013-01-23 08:57:00,15.6,2.3,29.37,West,270,0.0,2.0,55,0.00,,OVC045,0.00,51.00,VWS V14.01,2013-01-23 14:57:00,
2013-01-23 08:58:00,15.6,2.3,29.37,SW,225,1.0,4.0,55,0.00,,OVC045,0.00,53.00,VWS V14.01,2013-01-23 14:58:00,
2013-01-23 08:59:00,15.6,2.3,29.37,SW,225,0.0,2.0,55,0.00,,OVC045,0.00,53.00,VWS V14.01,2013-01-23 14:59:00,
2013-01-23 09:00:00,15.7,2.4,29.37,SW,225,0.0,1.0,55,0.00,,OVC045,0.00,53.00,VWS V14.01,2013-01-23 15:00:00,
2013-01-23 09:01:00,15.7,2.4,29.37,SW,225,0.0,0.0,55,0.00,,OVC045,0.00,54.00,VWS V14.01,2013-01-23 15:01:00,
2013-01-23 09:02:00,15.7,2.4,29.37,SSE,158,0.0,1.0,55,0.00,,OVC045,0.00,54.00,VWS V14.01,2013-01-23 15:02:00,
2013-01-23 09:03:00,15.7,2.4,29.37,SSE,158,0.0,1.0,55,0.00,,OVC045,0.00,53.00,VWS V14.01,2013-01-23 15:03:00,
2013-01-23 09:04:00,15.7,2.4,29.37,SSE,158,0.0,1.0,55,0.00,,OVC045,0.00,53.00,VWS V14.01,2013-01-23 15:04:00,
2013-01-23 09:05:00,15.8,2.5,29.37,SSE,158,0.0,1.0,55,0.00,,OVC045,0.00,54.00,VWS V14.01,2013-01-23 15:05:00,
2013-01-23 09:06:00,15.8,2.5,29.37,SSE,158,0.0,1.0,55,0.00,,OVC045,0.00,56.00,VWS V14.01,2013-01-23 15:06:00,
2013-01-23 09:07:00,15.9,3.0,29.37,SSE,158,0.0,2.0,56,0.00,,OVC045,0.00,58.00,VWS V14.01,2013-01-23 15:07:00,
2013-01-23 09:08:00,15.9,3.0,29.36,SSE,158,0.0,1.0,56,0.00,,OVC045,0.00,60.00,VWS V14.01,2013-01-23 15:08:00,
2013-01-23 09:09:00,15.9,3.0,29.36,SSE,158,0.0,0.0,56,0.00,,OVC045,0.00,63.00,VWS V14.01,2013-01-23 15:09:00,
2013-01-23 09:10:00,16.0,3.1,29.37,SSE,158,0.0,0.0,56,0.00,,OVC045,0.00,65.00,VWS V14.01,2013-01-23 15:10:00,
2013-01-23 09:11:00,16.0,3.1,29.37,SSE,158,0.0,1.0,56,0.00,,OVC045,0.00,67.00,VWS V14.01,2013-01-23 15:11:00,
2013-01-23 09:12:00,16.1,3.2,29.37,SSE,158,0.0,0.0,56,0.00,,OVC045,0.00,69.00,VWS V14.01,2013-01-23 15:12:00,
2013-01-23 09:13:00,16.1,3.2,29.37,WSW,248,1.0,3.0,56,0.00,,OVC045,0.00,67.00,VWS V14.01,2013-01-23 15:13:00,
2013-01-23 09:14:00,16.1,2.8,29.37,WSW,248,0.0,1.0,55,0.00,,OVC045,0.00,69.00,VWS V14.01,2013-01-23 15:14:00,
2013-01-23 09:15:00,16.1,2.8,29.36,WSW,248,0.0,0.0,55,0.00,,OVC045,0.00,71.00,VWS V14.01,2013-01-23 15:15:00,
2013-01-23 09:16:00,16.1,3.2,29.36,WSW,248,0.0,1.0,56,0.00,,OVC045,0.00,72.00,VWS V14.01,2013-01-23 15:16:00,
2013-01-23 09:17:00,16.1,3.2,29.36,WSW,248,0.0,0.0,56,0.00,,OVC045,0.00,74.00,VWS V14.01,2013-01-23 15:17:00,
2013-01-23 09:18:00,16.2,3.3,29.36,South,180,1.0,2.0,56,0.00,,OVC045,0.00,76.00,VWS V14.01,2013-01-23 15:18:00,
2013-01-23 09:19:00,16.2,3.3,29.37,South,180,0.0,2.0,56,0.00,,OVC045,0.00,74.00,VWS V14.01,2013-01-23 15:19:00,
2013-01-23 09:20:00,16.2,3.3,29.37,SSE,158,0.0,1.0,56,0.00,,OVC045,0.00,70.00,VWS V14.01,2013-01-23 15:20:00,
2013-01-23 09:21:00,16.3,3.4,29.37,SSE,158,0.0,2.0,56,0.00,,OVC045,0.00,72.00,VWS V14.01,2013-01-23 15:21:00,
2013-01-23 09:22:00,16.3,3.4,29.36,SSE,158,0.0,1.0,56,0.00,,OVC045,0.00,74.00,VWS V14.01,2013-01-23 15:22:00,
2013-01-23 09:23:00,16.3,3.0,29.36,SSE,158,1.0,5.0,55,0.00,,OVC045,0.00,77.00,VWS V14.01,2013-01-23 15:23:00,
2013-01-23 09:24:00,16.4,3.1,29.36,SE,135,0.0,1.0,55,0.00,,OVC045,0.00,77.00,VWS V14.01,2013-01-23 15:24:00,
2013-01-23 09:25:00,16.4,3.1,29.36,SE,135,0.0,1.0,55,0.00,,OVC045,0.00,76.00,VWS V14.01,2013-01-23 15:25:00,
2013-01-23 09:26:00,16.4,3.1,29.36,SE,135,0.0,2.0,55,0.00,,OVC045,0.00,81.00,VWS V14.01,2013-01-23 15:26:00,
2013-01-23 09:27:00,16.5,3.2,29.36,SSE,158,0.0,1.0,55,0.00,,OVC045,0.00,80.00,VWS V14.01,2013-01-23 15:27:00,
2013-01-23 09:28:00,16.5,3.2,29.36,SSE,158,0.0,1.0,55,0.00,,OVC045,0.00,79.00,VWS V14.01,2013-01-23 15:28:00,
2013-01-23 09:29:00,16.5,3.5,29.36,SSE,158,0.0,2.0,56,0.00,,OVC045,0.00,77.00,VWS V14.01,2013-01-23 15:29:00,
2013-01-23 09:30:00,16.6,3.7,29.36,SSE,158,1.0,2.0,56,0.00,,OVC045,0.00,77.00,VWS V14.01,2013-01-23 15:30:00,
2013-01-23 09:31:00,16.6,3.7,29.36,SSE,158,0.0,1.0,56,0.00,,OVC045,0.00,77.00,VWS V14.01,2013-01-23 15:31:00,
2013-01-23 09:32:00,16.6,3.7,29.36,SE,135,0.0,1.0,56,0.00,,OVC045,0.00,76.00,VWS V14.01,2013-01-23 15:32:00,
2013-01-23 09:33:00,16.7,3.7,29.36,SE,135,0.0,0.0,56,0.00,,OVC045,0.00,76.00,VWS V14.01,2013-01-23 15:33:00,
2013-01-23 09:34:00,16.7,3.7,29.36,SW,225,1.0,4.0,56,0.00,,OVC045,0.00,77.00,VWS V14.01,2013-01-23 15:34:00,
2013-01-23 09:35:00,16.7,3.7,29.36,SSW,202,1.0,3.0,56,0.00,,OVC045,0.00,76.00,VWS V14.01,2013-01-23 15:35:00,
2013-01-23 09:36:00,16.7,3.3,29.36,SE,135,1.0,4.0,55,0.00,,OVC045,0.00,76.00,VWS V14.01,2013-01-23 15:36:00,
2013-01-23 09:37:00,16.7,3.3,29.36,WSW,248,1.0,3.0,55,0.00,,OVC045,0.00,77.00,VWS V14.01,2013-01-23 15:37:00,
2013-01-23 09:38:00,16.7,3.3,29.36,WSW,248,1.0,2.0,55,0.00,,OVC045,0.00,79.00,VWS V14.01,2013-01-23 15:38:00,
2013-01-23 09:39:00,16.7,3.7,29.36,WSW,248,0.0,2.0,56,0.00,,OVC045,0.00,80.00,VWS V14.01,2013-01-23 15:39:00,
2013-01-23 09:40:00,16.7,3.7,29.36,ESE,112,1.0,5.0,56,0.00,,OVC045,0.00,81.00,VWS V14.01,2013-01-23 15:40:00,
2013-01-23 09:41:00,16.8,3.8,29.36,ESE,112,0.0,1.0,56,0.00,,OVC045,0.00,84.00,VWS V14.01,2013-01-23 15:41:00,
2013-01-23 09:42:00,16.8,3.8,29.36,ESE,112,0.0,1.0,56,0.00,,OVC045,0.00,86.00,VWS V14.01,2013-01-23 15:42:00,
2013-01-23 09:43:00,16.8,3.8,29.36,ESE,112,0.0,1.0,56,0.00,,OVC045,0.00,86.00,VWS V14.01,2013-01-23 15:43:00,
2013-01-23 09:44:00,16.8,3.8,29.36,ESE,112,0.0,2.0,56,0.00,,OVC045,0.00,88.00,VWS V14.01,2013-01-23 15:44:00,
2013-01-23 09:45:00,16.9,3.9,29.36,SE,135,1.0,4.0,56,0.00,,OVC045,0.00,90.00,VWS V14.01,2013-01-23 15:45:00,
2013-01-23 09:46:00,16.9,3.9,29.36,SE,135,0.0,2.0,56,0.00,,OVC045,0.00,90.00,VWS V14.01,2013-01-23 15:46:00,
2013-01-23 09:47:00,17.0,4.0,29.36,SE,135,0.0,0.0,56,0.00,,OVC045,0.00,90.00,VWS V14.01,2013-01-23 15:47:00,
2013-01-23 09:48:00,17.0,4.0,29.36,SE,135,0.0,1.0,56,0.00,,OVC045,0.00,90.00,VWS V14.01,2013-01-23 15:48:00,
2013-01-23 09:49:00,17.0,4.0,29.36,SE,135,0.0,0.0,56,0.00,,OVC045,0.00,91.00,VWS V14.01,2013-01-23 15:49:00,
2013-01-23 09:50:00,17.1,4.1,29.36,SE,135,0.0,2.0,56,0.00,,OVC045,0.00,91.00,VWS V14.01,2013-01-23 15:50:00,
2013-01-23 09:51:00,17.1,4.1,29.36,SE,135,0.0,2.0,56,0.00,,OVC045,0.00,93.00,VWS V14.01,2013-01-23 15:51:00,
2013-01-23 09:52:00,17.2,4.2,29.36,SSE,158,1.0,2.0,56,0.00,,OVC045,0.00,97.00,VWS V14.01,2013-01-23 15:52:00,
2013-01-23 09:53:00,17.2,4.2,29.36,South,180,1.0,4.0,56,0.00,,OVC045,0.00,93.00,VWS V14.01,2013-01-23 15:53:00,
2013-01-23 09:54:00,17.2,4.2,29.36,SW,225,2.0,6.0,56,0.00,,OVC045,0.00,91.00,VWS V14.01,2013-01-23 15:54:00,
2013-01-23 09:55:00,17.2,4.2,29.36,SW,225,0.0,6.0,56,0.00,,OVC045,0.00,93.00,VWS V14.01,2013-01-23 15:55:00,
2013-01-23 09:56:00,17.2,4.2,29.36,SW,225,1.0,2.0,56,0.00,,OVC045,0.00,96.00,VWS V14.01,2013-01-23 15:56:00,
2013-01-23 09:57:00,17.2,4.2,29.36,SW,225,3.0,5.0,56,0.00,,OVC045,0.00,97.00,VWS V14.01,2013-01-23 15:57:00,
2013-01-23 09:58:00,17.2,4.2,29.36,West,270,1.0,2.0,56,0.00,,OVC045,0.00,98.00,VWS V14.01,2013-01-23 15:58:00,
2013-01-23 09:59:00,17.2,4.2,29.36,SE,135,1.0,4.0,56,0.00,,OVC045,0.00,97.00,VWS V14.01,2013-01-23 15:59:00,
2013-01-23 10:00:00,17.2,4.2,29.36,SE,135,1.0,2.0,56,0.00,,OVC045,0.00,97.00,VWS V14.01,2013-01-23 16:00:00,
2013-01-23 10:01:00,17.3,4.3,29.36,SE,135,0.0,0.0,56,0.00,,OVC045,0.00,100.00,VWS V14.01,2013-01-23 16:01:00,
2013-01-23 10:02:00,17.3,4.3,29.36,SE,135,0.0,1.0,56,0.00,,OVC045,0.00,104.00,VWS V14.01,2013-01-23 16:02:00,
2013-01-23 10:03:00,17.3,4.3,29.36,West,270,2.0,4.0,56,0.00,,OVC045,0.00,109.00,VWS V14.01,2013-01-23 16:03:00,
2013-01-23 10:04:00,17.4,4.4,29.36,SSW,202,1.0,3.0,56,0.00,,OVC045,0.00,109.00,VWS V14.01,2013-01-23 16:04:00,
2013-01-23 10:05:00,17.4,4.4,29.36,South,180,1.0,4.0,56,0.00,,OVC045,0.00,111.00,VWS V14.01,2013-01-23 16:05:00,
2013-01-23 10:06:00,17.4,4.4,29.36,South,180,0.0,0.0,56,0.00,,OVC045,0.00,113.00,VWS V14.01,2013-01-23 16:06:00,
2013-01-23 10:07:00,17.5,4.5,29.36,SE,135,0.0,2.0,56,0.00,,OVC045,0.00,109.00,VWS V14.01,2013-01-23 16:07:00,
2013-01-23 10:08:00,17.5,4.5,29.36,SE,135,2.0,6.0,56,0.00,,OVC045,0.00,105.00,VWS V14.01,2013-01-23 16:08:00,
2013-01-23 10:09:00,17.5,4.5,29.36,South,180,1.0,2.0,56,0.00,,OVC045,0.00,105.00,VWS V14.01,2013-01-23 16:09:00,
2013-01-23 10:10:00,17.5,4.5,29.36,NE,45,1.0,4.0,56,0.00,,OVC045,0.00,107.00,VWS V14.01,2013-01-23 16:10:00,
2013-01-23 10:11:00,17.6,4.2,29.36,South,180,0.0,1.0,55,0.00,,OVC045,0.00,109.00,VWS V14.01,2013-01-23 16:11:00,
2013-01-23 10:12:00,17.6,4.6,29.36,South,180,0.0,1.0,56,0.00,,OVC045,0.00,111.00,VWS V14.01,2013-01-23 16:12:00,
2013-01-23 10:13:00,17.6,4.6,29.36,South,180,0.0,2.0,56,0.00,,OVC045,0.00,113.00,VWS V14.01,2013-01-23 16:13:00,
2013-01-23 10:14:00,17.7,4.3,29.36,South,180,0.0,2.0,55,0.00,,OVC045,0.00,117.00,VWS V14.01,2013-01-23 16:14:00,
2013-01-23 10:15:00,17.7,4.3,29.36,South,180,0.0,0.0,55,0.00,,OVC045,0.00,113.00,VWS V14.01,2013-01-23 16:15:00,
2013-01-23 10:16:00,17.7,4.3,29.36,South,180,1.0,2.0,55,0.00,,OVC045,0.00,120.00,VWS V14.01,2013-01-23 16:16:00,
2013-01-23 10:17:00,17.7,4.3,29.36,South,180,2.0,5.0,55,0.00,,OVC045,0.00,121.00,VWS V14.01,2013-01-23 16:17:00,
2013-01-23 10:18:00,17.8,4.4,29.36,SE,135,2.0,4.0,55,0.00,,OVC045,0.00,120.00,VWS V14.01,2013-01-23 16:18:00,
2013-01-23 10:19:00,17.8,4.8,29.36,SE,135,1.0,2.0,56,0.00,,OVC045,0.00,125.00,VWS V14.01,2013-01-23 16:19:00,
2013-01-23 10:20:00,17.9,4.9,29.36,SW,225,1.0,6.0,56,0.00,,OVC045,0.00,134.00,VWS V14.01,2013-01-23 16:20:00,
2013-01-23 10:21:00,17.9,4.9,29.36,SW,225,0.0,2.0,56,0.00,,OVC045,0.00,132.00,VWS V14.01,2013-01-23 16:21:00,
2013-01-23 10:22:00,18.0,5.0,29.35,SW,225,2.0,4.0,56,0.00,,OVC045,0.00,135.00,VWS V14.01,2013-01-23 16:22:00,
2013-01-23 10:23:00,18.0,5.0,29.35,SW,225,0.0,2.0,56,0.00,,OVC045,0.00,144.00,VWS V14.01,2013-01-23 16:23:00,
2013-01-23 10:24:00,18.0,5.0,29.35,SW,225,1.0,6.0,56,0.00,,OVC045,0.00,146.00,VWS V14.01,2013-01-23 16:24:00,
2013-01-23 10:25:00,18.0,5.0,29.35,SE,135,0.0,1.0,56,0.00,,OVC045,0.00,145.00,VWS V14.01,2013-01-23 16:25:00,
2013-01-23 10:26:00,18.0,5.0,29.35,WSW,248,1.0,3.0,56,0.00,,OVC045,0.00,151.00,VWS V14.01,2013-01-23 16:26:00,
2013-01-23 10:27:00,18.1,5.1,29.35,WSW,248,0.0,2.0,56,0.00,,OVC045,0.00,149.00,VWS V14.01,2013-01-23 16:27:00,
2013-01-23 10:28:00,18.1,5.1,29.35,WSW,248,1.0,3.0,56,0.00,,OVC045,0.00,142.00,VWS V14.01,2013-01-23 16:28:00,
2013-01-23 10:29:00,18.2,5.2,29.35,WSW,248,1.0,3.0,56,0.00,,OVC045,0.00,135.00,VWS V14.01,2013-01-23 16:29:00,
2013-01-23 10:30:00,18.2,5.5,29.35,WSW,248,0.0,1.0,57,0.00,,OVC045,0.00,135.00,VWS V14.01,2013-01-23 16:30:00,
2013-01-23 10:31:00,18.3,5.6,29.35,WSW,248,1.0,2.0,57,0.00,,OVC045,0.00,134.00,VWS V14.01,2013-01-23 16:31:00,
2013-01-23 10:32:00,18.4,5.7,29.35,WSW,248,0.0,1.0,57,0.00,,OVC045,0.00,130.00,VWS V14.01,2013-01-23 16:32:00,
2013-01-23 10:33:00,18.5,5.8,29.35,West,270,1.0,2.0,57,0.00,,OVC045,0.00,134.00,VWS V14.01,2013-01-23 16:33:00,
2013-01-23 10:34:00,18.5,5.8,29.35,West,270,0.0,2.0,57,0.00,,OVC045,0.00,132.00,VWS V14.01,2013-01-23 16:34:00,
2013-01-23 10:35:00,18.6,5.9,29.35,West,270,0.0,2.0,57,0.00,,OVC045,0.00,132.00,VWS V14.01,2013-01-23 16:35:00,
2013-01-23 10:36:00,18.7,6.0,29.35,South,180,0.0,2.0,57,0.00,,OVC045,0.00,137.00,VWS V14.01,2013-01-23 16:36:00,
2013-01-23 10:37:00,18.8,6.1,29.35,South,180,0.0,2.0,57,0.00,,OVC045,0.00,144.00,VWS V14.01,2013-01-23 16:37:00,
2013-01-23 10:38:00,18.8,6.1,29.35,SSE,158,0.0,2.0,57,0.00,,OVC045,0.00,142.00,VWS V14.01,2013-01-23 16:38:00,
2013-01-23 10:39:00,18.9,6.2,29.34,ESE,112,1.0,4.0,57,0.00,,OVC045,0.00,134.00,VWS V14.01,2013-01-23 16:39:00,
2013-01-23 10:40:00,18.9,6.2,29.34,SW,225,0.0,1.0,57,0.00,,OVC045,0.00,134.00,VWS V14.01,2013-01-23 16:40:00,
2013-01-23 10:41:00,18.9,6.2,29.34,SW,225,0.0,1.0,57,0.00,,OVC045,0.00,135.00,VWS V14.01,2013-01-23 16:41:00,
2013-01-23 10:42:00,18.9,6.2,29.34,WSW,248,1.0,2.0,57,0.00,,OVC045,0.00,139.00,VWS V14.01,2013-01-23 16:42:00,
2013-01-23 10:43:00,18.9,6.2,29.34,WSW,248,2.0,5.0,57,0.00,,OVC045,0.00,145.00,VWS V14.01,2013-01-23 16:43:00,
2013-01-23 10:44:00,18.9,6.2,29.34,SW,225,1.0,5.0,57,0.00,,OVC045,0.00,130.00,VWS V14.01,2013-01-23 16:44:00,
2013-01-23 10:45:00,18.9,6.2,29.34,SW,225,2.0,5.0,57,0.00,,OVC045,0.00,130.00,VWS V14.01,2013-01-23 16:45:00,
2013-01-23 10:46:00,18.8,6.1,29.34,South,180,1.0,4.0,57,0.00,,OVC045,0.00,137.00,VWS V14.01,2013-01-23 16:46:00,
2013-01-23 10:47:00,18.8,6.1,29.34,ESE,112,0.0,1.0,57,0.00,,OVC045,0.00,139.00,VWS V14.01,2013-01-23 16:47:00,
2013-01-23 10:48:00,18.8,6.5,29.34,ESE,112,0.0,1.0,58,0.00,,OVC045,0.00,144.00,VWS V14.01,2013-01-23 16:48:00,
2013-01-23 10:49:00,18.9,6.6,29.34,East,90,1.0,4.0,58,0.00,,OVC045,0.00,158.00,VWS V14.01,2013-01-23 16:49:00,
2013-01-23 10:50:00,18.9,6.6,29.34,South,180,0.0,1.0,58,0.00,,OVC045,0.00,155.00,VWS V14.01,2013-01-23 16:50:00,
2013-01-23 10:51:00,19.0,6.7,29.34,South,180,0.0,1.0,58,0.00,,OVC045,0.00,148.00,VWS V14.01,2013-01-23 16:51:00,
2013-01-23 10:52:00,19.1,6.8,29.34,South,180,0.0,1.0,58,0.00,,OVC045,0.00,160.00,VWS V14.01,2013-01-23 16:52:00,
2013-01-23 10:53:00,19.1,6.8,29.34,SSE,158,1.0,4.0,58,0.00,,OVC045,0.00,163.00,VWS V14.01,2013-01-23 16:53:00,
2013-01-23 10:54:00,19.2,6.9,29.33,WSW,248,2.0,4.0,58,0.00,,OVC045,0.00,146.00,VWS V14.01,2013-01-23 16:54:00,
2013-01-23 10:55:00,19.3,6.9,29.33,WSW,248,1.0,2.0,58,0.00,,OVC045,0.00,166.00,VWS V14.01,2013-01-23 16:55:00,
2013-01-23 10:56:00,19.3,6.9,29.33,SSE,158,1.0,4.0,58,0.00,,OVC045,0.00,181.00,VWS V14.01,2013-01-23 16:56:00,
2013-01-23 10:57:00,19.4,7.1,29.33,East,90,1.0,4.0,58,0.00,,OVC045,0.00,183.00,VWS V14.01,2013-01-23 16:57:00,
2013-01-23 10:58:00,19.4,7.1,29.33,ESE,112,0.0,1.0,58,0.00,,OVC045,0.00,183.00,VWS V14.01,2013-01-23 16:58:00,
2013-01-23 10:59:00,19.5,7.1,29.33,ESE,112,1.0,4.0,58,0.00,,OVC045,0.00,171.00,VWS V14.01,2013-01-23 16:59:00,
2013-01-23 11:00:00,19.7,7.3,29.33,SE,135,2.0,4.0,58,0.00,,OVC045,0.00,169.00,VWS V14.01,2013-01-23 17:00:00,
2013-01-23 11:01:00,19.7,7.3,29.33,ESE,112,2.0,6.0,58,0.00,,OVC045,0.00,162.00,VWS V14.01,2013-01-23 17:01:00,
2013-01-23 11:02:00,19.7,6.9,29.33,ESE,112,1.0,5.0,57,0.00,,OVC045,0.00,162.00,VWS V14.01,2013-01-23 17:02:00,
2013-01-23 11:03:00,19.7,6.9,29.33,SSE,158,1.0,2.0,57,0.00,,OVC045,0.00,162.00,VWS V14.01,2013-01-23 17:03:00,
2013-01-23 11:04:00,19.7,6.9,29.33,SSE,158,0.0,2.0,57,0.00,,OVC045,0.00,162.00,VWS V14.01,2013-01-23 17:04:00,
2013-01-23 11:05:00,19.7,6.9,29.33,SSW,202,1.0,3.0,57,0.00,,OVC045,0.00,171.00,VWS V14.01,2013-01-23 17:05:00,
2013-01-23 11:06:00,19.8,7.0,29.33,SSW,202,1.0,6.0,57,0.00,,OVC045,0.00,173.00,VWS V14.01,2013-01-23 17:06:00,
2013-01-23 11:07:00,19.8,7.0,29.33,SW,225,2.0,4.0,57,0.00,,OVC045,0.00,172.00,VWS V14.01,2013-01-23 17:07:00,
2013-01-23 11:08:00,19.8,7.0,29.33,SSE,158,1.0,4.0,57,0.00,,OVC045,0.00,172.00,VWS V14.01,2013-01-23 17:08:00,
2013-01-23 11:09:00,19.9,7.1,29.33,SSE,158,1.0,4.0,57,0.00,,OVC045,0.00,179.00,VWS V14.01,2013-01-23 17:09:00,
2013-01-23 11:10:00,19.9,7.1,29.33,SSE,158,1.0,2.0,57,0.00,,OVC045,0.00,176.00,VWS V14.01,2013-01-23 17:10:00,
2013-01-23 11:11:00,20.0,6.8,29.33,SSE,158,0.0,2.0,56,0.00,,OVC045,0.00,174.00,VWS V14.01,2013-01-23 17:11:00,
2013-01-23 11:12:00,20.0,7.2,29.33,SE,135,0.0,2.0,57,0.00,,OVC045,0.00,171.00,VWS V14.01,2013-01-23 17:12:00,
2013-01-23 11:13:00,20.1,6.9,29.33,SW,225,1.0,3.0,56,0.00,,OVC045,0.00,163.00,VWS V14.01,2013-01-23 17:13:00,
2013-01-23 11:14:00,20.1,6.9,29.33,West,270,1.0,3.0,56,0.00,,OVC045,0.00,163.00,VWS V14.01,2013-01-23 17:14:00,
2013-01-23 11:15:00,20.1,6.9,29.33,WSW,248,1.0,4.0,56,0.00,,OVC045,0.00,163.00,VWS V14.01,2013-01-23 17:15:00,
2013-01-23 11:16:00,20.1,6.9,29.33,West,270,1.0,3.0,56,0.00,,OVC045,0.00,163.00,VWS V14.01,2013-01-23 17:16:00,
2013-01-23 11:17:00,20.1,6.9,29.33,West,270,0.0,2.0,56,0.00,,OVC045,0.00,169.00,VWS V14.01,2013-01-23 17:17:00,
2013-01-23 11:18:00,20.2,7.0,29.33,West,270,2.0,5.0,56,0.00,,OVC045,0.00,179.00,VWS V14.01,2013-01-23 17:18:00,
2013-01-23 11:19:00,20.1,6.9,29.33,West,270,3.0,4.0,56,0.00,,OVC045,0.00,185.00,VWS V14.01,2013-01-23 17:19:00,
2013-01-23 11:20:00,20.1,6.9,29.33,WSW,248,4.0,7.0,56,0.00,,OVC045,0.00,179.00,VWS V14.01,2013-01-23 17:20:00,
2013-01-23 11:21:00,20.1,6.9,29.33,WSW,248,0.0,7.0,56,0.00,,OVC045,0.00,172.00,VWS V14.01,2013-01-23 17:21:00,
2013-01-23 11:22:00,20.0,6.8,29.33,WSW,248,1.0,3.0,56,0.00,,OVC045,0.00,174.00,VWS V14.01,2013-01-23 17:22:00,
2013-01-23 11:23:00,20.1,6.9,29.33,WSW,248,0.0,1.0,56,0.00,,OVC045,0.00,174.00,VWS V14.01,2013-01-23 17:23:00,
2013-01-23 11:24:00,20.1,7.3,29.32,WSW,248,0.0,2.0,57,0.00,,OVC045,0.00,150.00,VWS V14.01,2013-01-23 17:24:00,
2013-01-23 11:25:00,20.2,7.0,29.32,WSW,248,1.0,2.0,56,0.00,,OVC045,0.00,153.00,VWS V14.01,2013-01-23 17:25:00,
2013-01-23 11:26:00,20.2,7.4,29.32,South,180,1.0,2.0,57,0.00,,OVC045,0.00,169.00,VWS V14.01,2013-01-23 17:26:00,
2013-01-23 11:27:00,20.3,7.1,29.32,SSE,158,0.0,1.0,56,0.00,,OVC045,0.00,195.00,VWS V14.01,2013-01-23 17:27:00,
2013-01-23 11:28:00,20.4,7.6,29.32,SSE,158,0.0,2.0,57,0.00,,OVC045,0.00,213.00,VWS V14.01,2013-01-23 17:28:00,
2013-01-23 11:29:00,20.4,7.6,29.32,West,270,1.0,3.0,57,0.00,,OVC045,0.00,216.00,VWS V14.01,2013-01-23 17:29:00,
2013-01-23 11:30:00,20.5,7.7,29.32,SW,225,1.0,2.0,57,0.00,,OVC045,0.00,215.00,VWS V14.01,2013-01-23 17:30:00,
2013-01-23 11:31:00,20.6,7.8,29.32,West,270,2.0,3.0,57,0.00,,OVC045,0.00,243.00,VWS V14.01,2013-01-23 17:31:00,
2013-01-23 11:32:00,20.6,7.4,29.32,WSW,248,2.0,5.0,56,0.00,,OVC045,0.00,243.00,VWS V14.01,2013-01-23 17:32:00,
2013-01-23 11:42:00,21.1,7.9,29.31,East,90,2.0,7.0,56,0.00,,OVC045,0.00,221.00,VWS V14.01,2013-01-23 17:42:00,
2013-01-23 11:45:00,21.3,8.1,29.31,WSW,244,3.0,5.0,56,0.00,,OVC045,0.00,209.00,VWS V14.01,2013-01-23 17:45:00,
2013-01-23 11:47:00,21.5,8.2,29.30,SE,127,0.0,1.0,56,0.00,,OVC045,0.00,192.00,VWS V14.01,2013-01-23 17:47:00,
2013-01-23 11:50:00,21.6,7.9,29.30,ESE,113,1.0,1.0,55,0.00,,OVC045,0.00,156.00,VWS V14.01,2013-01-23 17:50:00,
2013-01-23 11:51:00,21.6,8.3,29.30,ESE,113,0.0,1.0,56,0.00,,OVC045,0.00,155.00,VWS V14.01,2013-01-23 17:51:00,
2013-01-23 11:53:00,21.7,8.4,29.29,South,182,0.0,3.0,56,0.00,,OVC045,0.00,151.00,VWS V14.01,2013-01-23 17:53:00,
2013-01-23 11:56:00,22.0,8.3,29.28,SSE,165,0.0,4.0,55,0.00,,OVC045,0.00,172.00,VWS V14.01,2013-01-23 17:56:00,
2013-01-23 11:59:00,22.1,8.4,29.28,ESE,117,1.0,1.0,55,0.00,,OVC045,0.00,179.00,VWS V14.01,2013-01-23 17:59:00,
2013-01-23 12:02:00,22.2,8.5,29.28,South,178,0.0,4.0,55,0.00,,OVC049,0.00,183.00,VWS V14.01,2013-01-23 18:02:00,
2013-01-23 12:03:00,22.2,8.5,29.28,WSW,237,4.0,4.0,55,0.00,,OVC049,0.00,197.00,VWS V14.01,2013-01-23 18:03:00,
2013-01-23 12:04:00,22.2,8.5,29.27,WSW,237,3.0,5.0,55,0.00,,OVC049,0.00,199.00,VWS V14.01,2013-01-23 18:04:00,
2013-01-23 12:08:00,22.2,8.5,29.27,SW,227,3.0,4.0,55,0.00,,OVC049,0.00,218.00,VWS V14.01,2013-01-23 18:08:00,
2013-01-23 12:09:00,22.2,8.5,29.27,WSW,245,5.0,6.0,55,0.00,,OVC049,0.00,221.00,VWS V14.01,2013-01-23 18:09:00,
2013-01-23 12:12:00,22.3,8.6,29.27,SW,231,0.0,3.0,55,0.00,,OVC049,0.00,232.00,VWS V14.01,2013-01-23 18:12:00,
2013-01-23 12:14:00,22.4,8.7,29.27,West,259,0.0,2.0,55,0.00,,OVC049,0.00,221.00,VWS V14.01,2013-01-23 18:14:00,
2013-01-23 12:16:00,22.4,8.7,29.27,NNE,20,1.0,1.0,55,0.00,,OVC049,0.00,209.00,VWS V14.01,2013-01-23 18:16:00,
2013-01-23 12:17:00,22.5,8.8,29.27,NNE,20,0.0,1.0,55,0.00,,OVC049,0.00,211.00,VWS V14.01,2013-01-23 18:17:00,
2013-01-23 12:22:00,22.6,8.9,29.27,SW,222,2.0,5.0,55,0.00,,OVC049,0.00,221.00,VWS V14.01,2013-01-23 18:22:00,
2013-01-23 12:23:00,22.6,8.9,29.27,SW,222,0.0,2.0,55,0.00,,OVC049,0.00,232.00,VWS V14.01,2013-01-23 18:23:00,
2013-01-23 12:24:00,22.6,8.9,29.27,SW,222,2.0,3.0,55,0.00,,OVC049,0.00,237.00,VWS V14.01,2013-01-23 18:24:00,
2013-01-23 12:27:00,22.7,9.4,29.27,WSW,244,1.0,4.0,56,0.00,,OVC049,0.00,251.00,VWS V14.01,2013-01-23 18:27:00,
2013-01-23 12:29:00,22.8,9.1,29.27,SSW,199,0.0,4.0,55,0.00,,OVC049,0.00,260.00,VWS V14.01,2013-01-23 18:29:00,
2013-01-23 12:31:00,22.9,9.2,29.27,SW,233,2.0,4.0,55,0.00,,OVC049,0.00,258.00,VWS V14.01,2013-01-23 18:31:00,
2013-01-23 12:33:00,23.1,9.4,29.27,WSW,246,3.0,6.0,55,0.00,,OVC049,0.00,246.00,VWS V14.01,2013-01-23 18:33:00,
2013-01-23 12:37:00,23.2,9.4,29.26,SW,227,0.0,0.0,55,0.00,,OVC049,0.00,257.00,VWS V14.01,2013-01-23 18:37:00,
2013-01-23 12:38:00,23.3,9.5,29.26,WSW,257,3.0,4.0,55,0.00,,OVC049,0.00,260.00,VWS V14.01,2013-01-23 18:38:00,
2013-01-23 12:40:00,23.4,9.6,29.26,South,169,4.0,4.0,55,0.00,,OVC049,0.00,257.00,VWS V14.01,2013-01-23 18:40:00,
2013-01-23 12:45:00,23.7,9.9,29.26,ENE,64,1.0,1.0,55,0.00,,OVC049,0.00,246.00,VWS V14.01,2013-01-23 18:45:00,
2013-01-23 12:48:00,23.9,9.7,29.25,WSW,246,0.0,3.0,54,0.00,,OVC049,0.00,213.00,VWS V14.01,2013-01-23 18:48:00,
2013-01-23 12:50:00,23.9,9.7,29.26,WSW,247,0.0,0.0,54,0.00,,OVC049,0.00,202.00,VWS V14.01,2013-01-23 18:50:00,
2013-01-23 12:51:00,24.0,9.8,29.25,East,98,0.0,1.0,54,0.00,,OVC049,0.00,199.00,VWS V14.01,2013-01-23 18:51:00,
2013-01-23 12:56:00,24.3,10.1,29.25,SW,217,0.0,2.0,54,0.00,,OVC049,0.00,190.00,VWS V14.01,2013-01-23 18:56:00,
2013-01-23 13:01:00,24.4,10.1,29.25,West,261,2.0,2.0,54,0.00,,OVC039,0.00,186.00,VWS V14.01,2013-01-23 19:01:00,
2013-01-23 13:02:00,24.5,10.2,29.25,South,173,2.0,3.0,54,0.00,,OVC039,0.00,176.00,VWS V14.01,2013-01-23 19:02:00,
2013-01-23 13:04:00,24.5,10.2,29.25,WSW,257,0.0,2.0,54,0.00,,OVC039,0.00,176.00,VWS V14.01,2013-01-23 19:04:00,
2013-01-23 13:05:00,24.6,10.3,29.25,WSW,257,0.0,2.0,54,0.00,,OVC039,0.00,176.00,VWS V14.01,2013-01-23 19:05:00,
2013-01-23 13:07:00,24.6,10.3,29.25,WSW,256,0.0,1.0,54,0.00,,OVC039,0.00,178.00,VWS V14.01,2013-01-23 19:07:00,
2013-01-23 13:10:00,24.7,10.4,29.24,WSW,257,0.0,2.0,54,0.00,,OVC039,0.00,190.00,VWS V14.01,2013-01-23 19:10:00,
2013-01-23 13:12:00,24.8,10.5,29.24,SW,226,0.0,1.0,54,0.00,,OVC039,0.00,214.00,VWS V14.01,2013-01-23 19:12:00,
2013-01-23 13:17:00,25.2,10.9,29.24,SE,125,0.0,1.0,54,0.00,,OVC039,0.00,202.00,VWS V14.01,2013-01-23 19:17:00,
2013-01-23 13:18:00,25.2,10.5,29.24,SE,126,0.0,0.0,53,0.00,,OVC039,0.00,199.00,VWS V14.01,2013-01-23 19:18:00,
2013-01-23 13:20:00,25.3,10.6,29.24,SW,215,3.0,3.0,53,0.00,,OVC039,0.00,197.00,VWS V14.01,2013-01-23 19:20:00,
2013-01-23 13:22:00,25.3,10.6,29.24,WSW,238,3.0,5.0,53,0.00,,OVC039,0.00,207.00,VWS V14.01,2013-01-23 19:22:00,
2013-01-23 13:25:00,25.3,10.6,29.24,SW,236,1.0,2.0,53,0.00,,OVC039,0.00,179.00,VWS V14.01,2013-01-23 19:25:00,
2013-01-23 13:27:00,25.3,10.6,29.24,West,260,1.0,5.0,53,0.00,,OVC039,0.00,195.00,VWS V14.01,2013-01-23 19:27:00,
2013-01-23 13:29:00,25.3,10.6,29.24,WSW,248,2.0,5.0,53,0.00,,OVC039,0.00,195.00,VWS V14.01,2013-01-23 19:29:00,
2013-01-23 13:30:00,25.2,10.5,29.23,WSW,248,1.0,4.0,53,0.00,,OVC039,0.00,185.00,VWS V14.01,2013-01-23 19:30:00,
2013-01-23 13:32:00,25.2,10.5,29.23,WSW,248,0.0,0.0,53,0.00,,OVC039,0.00,197.00,VWS V14.01,2013-01-23 19:32:00,
2013-01-23 13:37:00,25.4,11.1,29.23,SW,217,0.0,1.0,54,0.00,,OVC039,0.00,207.00,VWS V14.01,2013-01-23 19:37:00,
2013-01-23 13:38:00,25.4,11.1,29.23,SW,217,0.0,1.0,54,0.00,,OVC039,0.00,202.00,VWS V14.01,2013-01-23 19:38:00,
2013-01-23 13:40:00,25.6,11.3,29.23,SSE,162,0.0,4.0,54,0.00,,OVC039,0.00,202.00,VWS V14.01,2013-01-23 19:40:00,
2013-01-23 13:43:00,26.0,11.6,29.23,SSE,156,0.0,1.0,54,0.00,,OVC039,0.00,207.00,VWS V14.01,2013-01-23 19:43:00,
2013-01-23 13:45:00,26.1,11.3,29.23,SW,225,3.0,3.0,53,0.00,,OVC039,0.00,230.00,VWS V14.01,2013-01-23 19:45:00,
2013-01-23 13:46:00,26.1,11.3,29.22,SW,225,0.0,3.0,53,0.00,,OVC039,0.00,248.00,VWS V14.01,2013-01-23 19:46:00,
2013-01-23 13:48:00,26.2,11.4,29.22,South,184,0.0,3.0,53,0.00,,OVC039,0.00,309.00,VWS V14.01,2013-01-23 19:48:00,
2013-01-23 13:53:00,27.0,12.2,29.22,SSE,150,0.0,1.0,53,0.00,,OVC039,0.00,508.00,VWS V14.01,2013-01-23 19:53:00,
2013-01-23 13:54:00,27.2,12.4,29.22,SSE,150,0.0,1.0,53,0.00,,OVC039,0.00,545.00,VWS V14.01,2013-01-23 19:54:00,
2013-01-23 13:56:00,27.7,12.4,29.22,SSE,149,0.0,2.0,52,0.00,,OVC039,0.00,512.00,VWS V14.01,2013-01-23 19:56:00,
2013-01-23 13:59:00,28.4,12.6,29.22,SSE,160,0.0,5.0,51,0.00,,OVC039,0.00,561.00,VWS V14.01,2013-01-23 19:59:00,
2013-01-23 14:00:00,28.7,12.9,29.22,ESE,113,0.0,4.0,51,0.00,,OVC039,0.00,550.00,VWS V14.01,2013-01-23 20:00:00,
2013-01-23 14:03:00,29.3,13.0,29.22,WSW,244,0.0,1.0,50,0.00,,OVC041,0.00,534.00,VWS V14.01,2013-01-23 20:03:00,
2013-01-23 14:07:00,30.1,13.3,29.22,WSW,240,1.0,3.0,49,0.00,,OVC041,0.00,527.00,VWS V14.01,2013-01-23 20:07:00,
2013-01-23 14:09:00,30.4,13.5,29.22,WSW,240,0.0,1.0,49,0.00,,OVC041,0.00,515.00,VWS V14.01,2013-01-23 20:09:00,
2013-01-23 14:12:00,30.5,12.7,29.22,NW,311,2.0,8.0,47,0.00,,OVC041,0.00,473.00,VWS V14.01,2013-01-23 20:12:00,
2013-01-23 14:17:00,30.4,13.1,29.22,SW,232,0.0,3.0,48,0.00,,OVC041,0.00,482.00,VWS V14.01,2013-01-23 20:17:00,
2013-01-23 14:18:00,30.5,12.7,29.22,West,259,2.0,3.0,47,0.00,,OVC041,0.00,513.00,VWS V14.01,2013-01-23 20:18:00,
2013-01-23 14:21:00,30.4,13.1,29.22,West,263,3.0,8.0,48,0.00,,OVC041,0.00,531.00,VWS V14.01,2013-01-23 20:21:00,
2013-01-23 14:22:00,30.4,12.6,29.22,SW,214,1.0,6.0,47,0.00,,OVC041,0.00,517.00,VWS V14.01,2013-01-23 20:22:00,
2013-01-23 14:24:00,30.4,12.6,29.21,NW,315,4.0,6.0,47,0.00,,OVC041,0.00,520.00,VWS V14.01,2013-01-23 20:24:00,
2013-01-23 14:27:00,30.4,13.1,29.21,West,266,4.0,9.0,48,0.00,,OVC041,0.00,476.00,VWS V14.01,2013-01-23 20:27:00,
2013-01-23 14:29:00,30.4,13.1,29.21,West,276,1.0,3.0,48,0.00,,OVC041,0.00,274.00,VWS V14.01,2013-01-23 20:29:00,
2013-01-23 14:30:00,30.4,13.1,29.21,NW,317,2.0,5.0,48,0.00,,OVC041,0.00,427.00,VWS V14.01,2013-01-23 20:30:00,
2013-01-23 14:33:00,30.3,13.0,29.21,NW,311,3.0,3.0,48,0.00,,OVC041,0.00,255.00,VWS V14.01,2013-01-23 20:33:00,
2013-01-23 14:34:00,30.3,13.0,29.20,SW,217,6.0,6.0,48,0.00,,OVC041,0.00,388.00,VWS V14.01,2013-01-23 20:34:00,
2013-01-23 14:35:00,30.3,13.0,29.20,SW,222,4.0,6.0,48,0.00,,OVC041,0.00,376.00,VWS V14.01,2013-01-23 20:35:00,
2013-01-23 14:39:00,30.5,13.2,29.20,SSW,213,3.0,4.0,48,0.00,,OVC041,0.00,258.00,VWS V14.01,2013-01-23 20:39:00,
2013-01-23 14:40:00,30.6,13.3,29.20,WNW,301,4.0,4.0,48,0.00,,OVC041,0.00,260.00,VWS V14.01,2013-01-23 20:40:00,
2013-01-23 14:43:00,30.6,13.3,29.20,WSW,244,0.0,3.0,48,0.00,,OVC041,0.00,241.00,VWS V14.01,2013-01-23 20:43:00,
2013-01-23 14:44:00,30.6,13.3,29.20,SW,235,4.0,4.0,48,0.00,,OVC041,0.00,227.00,VWS V14.01,2013-01-23 20:44:00,
2013-01-23 14:47:00,30.6,13.3,29.20,SW,234,4.0,4.0,48,0.00,,OVC041,0.00,283.00,VWS V14.01,2013-01-23 20:47:00,
2013-01-23 14:49:00,30.6,13.3,29.20,WSW,249,2.0,4.0,48,0.00,,OVC041,0.00,211.00,VWS V14.01,2013-01-23 20:49:00,
2013-01-23 14:54:00,30.7,13.8,29.20,WSW,240,3.0,7.0,49,0.00,,OVC041,0.00,207.00,VWS V14.01,2013-01-23 20:54:00,
2013-01-23 14:55:00,30.7,13.8,29.20,NW,307,3.0,4.0,49,0.00,,OVC041,0.00,262.00,VWS V14.01,2013-01-23 20:55:00,
2013-01-23 14:56:00,30.7,13.8,29.20,NW,307,0.0,4.0,49,0.00,,OVC041,0.00,276.00,VWS V14.01,2013-01-23 20:56:00,
2013-01-23 14:57:00,30.8,13.9,29.20,NW,307,0.0,1.0,49,0.00,,OVC041,0.00,276.00,VWS V14.01,2013-01-23 20:57:00,
2013-01-23 15:02:00,31.0,13.6,29.20,WSW,249,1.0,5.0,48,0.00,,OVC043,0.00,229.00,VWS V14.01,2013-01-23 21:02:00,
2013-01-23 15:03:00,31.0,14.1,29.20,NW,325,2.0,3.0,49,0.00,,OVC043,0.00,246.00,VWS V14.01,2013-01-23 21:03:00,
2013-01-23 15:05:00,31.0,14.1,29.20,NW,313,3.0,5.0,49,0.00,,OVC043,0.00,200.00,VWS V14.01,2013-01-23 21:05:00,
2013-01-23 15:07:00,30.9,14.0,29.20,WSW,256,0.0,7.0,49,0.00,,OVC043,0.00,176.00,VWS V14.01,2013-01-23 21:07:00,
2013-01-23 15:10:00,31.0,14.1,29.20,WSW,239,3.0,5.0,49,0.00,,OVC043,0.00,167.00,VWS V14.01,2013-01-23 21:10:00,
2013-01-23 15:13:00,31.2,14.3,29.20,WSW,257,2.0,2.0,49,0.00,,OVC043,0.00,139.00,VWS V14.01,2013-01-23 21:13:00,
2013-01-23 15:14:00,31.2,14.3,29.20,North,350,0.0,3.0,49,0.00,,OVC043,0.00,132.00,VWS V14.01,2013-01-23 21:14:00,
2013-01-23 15:17:00,31.4,14.5,29.20,WSW,250,3.0,10.0,49,0.00,,OVC043,0.00,192.00,VWS V14.01,2013-01-23 21:17:00,
2013-01-23 15:20:00,31.5,14.6,29.20,NW,304,4.0,5.0,49,0.00,,OVC043,0.00,135.00,VWS V14.01,2013-01-23 21:20:00,
2013-01-23 15:24:00,31.6,14.6,29.20,SW,229,3.0,5.0,49,0.00,,OVC043,0.00,253.00,VWS V14.01,2013-01-23 21:24:00,
2013-01-23 15:27:00,31.7,14.7,29.20,WNW,302,0.0,3.0,49,0.00,,OVC043,0.00,272.00,VWS V14.01,2013-01-23 21:27:00,
2013-01-23 15:28:00,31.8,14.8,29.20,SW,223,5.0,7.0,49,0.00,,OVC043,0.00,267.00,VWS V14.01,2013-01-23 21:28:00,
2013-01-23 15:32:00,32.0,14.6,29.19,WNW,296,6.0,8.0,48,0.00,,OVC043,0.00,121.00,VWS V14.01,2013-01-23 21:32:00,
2013-01-23 15:34:00,31.9,14.4,29.20,WNW,294,3.0,12.0,48,0.00,,OVC043,0.00,204.00,VWS V14.01,2013-01-23 21:34:00,
2013-01-23 15:36:00,31.8,14.4,29.19,NW,311,7.0,9.0,48,0.00,,OVC043,0.00,107.00,VWS V14.01,2013-01-23 21:36:00,
2013-01-23 15:38:00,31.6,14.6,29.20,NNW,346,4.0,4.0,49,0.00,,OVC043,0.00,120.00,VWS V14.01,2013-01-23 21:38:00,
2013-01-23 15:39:00,31.6,14.6,29.20,West,280,2.0,7.0,49,0.00,,OVC043,0.00,127.00,VWS V14.01,2013-01-23 21:39:00,
2013-01-23 15:42:00,31.5,14.6,29.20,WNW,300,4.0,6.0,49,0.00,,OVC043,0.00,207.00,VWS V14.01,2013-01-23 21:42:00,
2013-01-23 15:43:00,31.5,14.6,29.20,WNW,302,5.0,8.0,49,0.00,,OVC043,0.00,221.00,VWS V14.01,2013-01-23 21:43:00,
2013-01-23 15:44:00,31.5,14.6,29.20,WNW,295,4.0,9.0,49,0.00,,OVC043,0.00,190.00,VWS V14.01,2013-01-23 21:44:00,
2013-01-23 15:48:00,31.5,14.6,29.20,NW,319,4.0,5.0,49,0.00,,OVC043,0.00,67.00,VWS V14.01,2013-01-23 21:48:00,
2013-01-23 15:51:00,31.4,14.5,29.20,SW,219,7.0,8.0,49,0.00,,OVC043,0.00,107.00,VWS V14.01,2013-01-23 21:51:00,
2013-01-23 15:54:00,31.4,14.9,29.20,WNW,300,1.0,10.0,50,0.00,,OVC043,0.00,121.00,VWS V14.01,2013-01-23 21:54:00,
2013-01-23 15:55:00,31.4,14.9,29.20,WSW,253,3.0,4.0,50,0.00,,OVC043,0.00,128.00,VWS V14.01,2013-01-23 21:55:00,
2013-01-23 15:58:00,31.3,14.4,29.21,West,280,2.0,7.0,49,0.00,,OVC043,0.00,81.00,VWS V14.01,2013-01-23 21:58:00,
2013-01-23 15:59:00,31.2,14.7,29.20,WNW,298,4.0,8.0,50,0.00,,OVC043,0.00,79.00,VWS V14.01,2013-01-23 21:59:00,
2013-01-23 16:00:00,31.1,14.6,29.20,SW,225,5.0,7.0,50,0.00,,BKN050,0.00,60.00,VWS V14.01,2013-01-23 22:00:00,
2013-01-23 16:04:00,30.9,14.5,29.20,NW,317,3.0,4.0,50,0.00,,BKN050,0.00,113.00,VWS V14.01,2013-01-23 22:04:00,
2013-01-23 16:09:00,30.8,14.4,29.20,West,280,7.0,7.0,50,0.00,,BKN050,0.00,146.00,VWS V14.01,2013-01-23 22:09:00,
2013-01-23 16:14:00,31.0,14.6,29.20,NNW,345,0.0,6.0,50,0.00,,BKN050,0.00,142.00,VWS V14.01,2013-01-23 22:14:00,
2013-01-23 16:15:00,31.0,14.6,29.20,WNW,291,3.0,6.0,50,0.00,,BKN050,0.00,134.00,VWS V14.01,2013-01-23 22:15:00,
2013-01-23 16:16:00,31.0,14.6,29.20,WNW,298,2.0,11.0,50,0.00,,BKN050,0.00,134.00,VWS V14.01,2013-01-23 22:16:00,
2013-01-23 16:20:00,31.0,14.6,29.20,West,265,4.0,8.0,50,0.00,,BKN050,0.00,95.00,VWS V14.01,2013-01-23 22:20:00,
2013-01-23 16:21:00,31.0,14.6,29.20,WNW,298,4.0,7.0,50,0.00,,BKN050,0.00,100.00,VWS V14.01,2013-01-23 22:21:00,
2013-01-23 16:22:00,31.0,14.6,29.20,WNW,302,1.0,4.0,50,0.00,,BKN050,0.00,93.00,VWS V14.01,2013-01-23 22:22:00,
2013-01-23 16:25:00,30.9,14.5,29.20,WNW,296,3.0,6.0,50,0.00,,BKN050,0.00,72.00,VWS V14.01,2013-01-23 22:25:00,
2013-01-23 16:27:00,30.9,14.5,29.20,NNE,13,0.0,5.0,50,0.00,,BKN050,0.00,56.00,VWS V14.01,2013-01-23 22:27:00,
2013-01-23 16:32:00,30.7,14.3,29.21,WNW,296,3.0,7.0,50,0.00,,BKN050,0.00,33.00,VWS V14.01,2013-01-23 22:32:00,
2013-01-23 16:33:00,30.6,14.2,29.21,WNW,286,3.0,4.0,50,0.00,,BKN050,0.00,32.00,VWS V14.01,2013-01-23 22:33:00,
2013-01-23 16:34:00,30.6,14.2,29.21,West,275,2.0,4.0,50,0.00,,BKN050,0.00,32.00,VWS V14.01,2013-01-23 22:34:00,
2013-01-23 16:35:00,30.6,14.2,29.21,West,276,1.0,7.0,50,0.00,,BKN050,0.00,30.00,VWS V14.01,2013-01-23 22:35:00,
2013-01-23 16:38:00,30.4,14.4,29.21,NW,308,1.0,4.0,51,0.00,,BKN050,0.00,23.00,VWS V14.01,2013-01-23 22:38:00,
2013-01-23 16:40:00,30.3,14.4,29.21,NW,310,2.0,3.0,51,0.00,,BKN050,0.00,18.00,VWS V14.01,2013-01-23 22:40:00,
2013-01-23 16:41:00,30.3,14.4,29.21,NW,310,0.0,2.0,51,0.00,,BKN050,0.00,16.00,VWS V14.01,2013-01-23 22:41:00,
2013-01-23 16:45:00,30.1,14.2,29.21,NW,311,2.0,3.0,51,0.00,,BKN050,0.00,14.00,VWS V14.01,2013-01-23 22:45:00,
2013-01-23 16:46:00,30.1,14.6,29.21,WNW,298,0.0,3.0,52,0.00,,BKN050,0.00,14.00,VWS V14.01,2013-01-23 22:46:00,
2013-01-23 16:47:00,30.0,14.5,29.21,NW,309,0.0,3.0,52,0.00,,BKN050,0.00,14.00,VWS V14.01,2013-01-23 22:47:00,
2013-01-23 16:48:00,30.0,14.5,29.21,West,281,2.0,4.0,52,0.00,,BKN050,0.00,12.00,VWS V14.01,2013-01-23 22:48:00,
2013-01-23 16:52:00,29.9,14.4,29.21,WNW,300,0.0,1.0,52,0.00,,BKN050,0.00,9.00,VWS V14.01,2013-01-23 22:52:00,
2013-01-23 16:53:00,29.9,14.4,29.21,WNW,299,2.0,2.0,52,0.00,,BKN050,0.00,9.00,VWS V14.01,2013-01-23 22:53:00,
2013-01-23 16:54:00,29.9,14.9,29.21,WNW,290,0.0,4.0,53,0.00,,BKN050,0.00,7.00,VWS V14.01,2013-01-23 22:54:00,
2013-01-23 16:58:00,29.8,14.8,29.21,NW,310,0.0,3.0,53,0.00,,BKN050,0.00,7.00,VWS V14.01,2013-01-23 22:58:00,
2013-01-23 17:00:00,29.7,14.7,29.21,NW,310,0.0,1.0,53,0.00,,BKN050,0.00,5.00,VWS V14.01,2013-01-23 23:00:00,
2013-01-23 17:01:00,29.7,15.1,29.21,NW,318,0.0,1.0,54,0.00,,FEW043,0.00,5.00,VWS V14.01,2013-01-23 23:01:00,
2013-01-23 17:04:00,29.6,15.0,29.21,NNW,336,0.0,1.0,54,0.00,,FEW043,0.00,5.00,VWS V14.01,2013-01-23 23:04:00,
2013-01-23 17:05:00,29.6,15.0,29.21,NW,313,3.0,4.0,54,0.00,,FEW043,0.00,0.00,VWS V14.01,2013-01-23 23:05:00,
2013-01-23 17:07:00,29.6,15.4,29.21,NW,311,0.0,1.0,55,0.00,,FEW043,0.00,0.00,VWS V14.01,2013-01-23 23:07:00,
2013-01-23 17:09:00,29.6,15.4,29.21,NW,311,2.0,3.0,55,0.00,,FEW043,0.00,0.00,VWS V14.01,2013-01-23 23:09:00,
2013-01-23 17:12:00,29.5,15.3,29.20,North,355,1.0,2.0,55,0.00,,FEW043,0.00,0.00,VWS V14.01,2013-01-23 23:12:00,
2013-01-23 17:14:00,29.5,15.3,29.20,North,355,0.0,1.0,55,0.00,,FEW043,0.00,0.00,VWS V14.01,2013-01-23 23:14:00,
2013-01-23 17:19:00,29.4,15.2,29.20,NW,317,0.0,0.0,55,0.00,,FEW043,0.00,0.00,VWS V14.01,2013-01-23 23:19:00,
2013-01-23 17:20:00,29.4,15.2,29.20,NW,317,0.0,2.0,55,0.00,,FEW043,0.00,0.00,VWS V14.01,2013-01-23 23:20:00,
2013-01-23 17:23:00,29.4,15.2,29.20,West,273,0.0,2.0,55,0.00,,FEW043,0.00,0.00,VWS V14.01,2013-01-23 23:23:00,
2013-01-23 17:25:00,29.3,15.6,29.20,West,273,1.0,2.0,56,0.00,,FEW043,0.00,0.00,VWS V14.01,2013-01-23 23:25:00,
2013-01-23 17:26:00,29.3,15.6,29.20,West,273,1.0,3.0,56,0.00,,FEW043,0.00,0.00,VWS V14.01,2013-01-23 23:26:00,
2013-01-23 17:30:00,29.3,15.6,29.21,WNW,298,4.0,4.0,56,0.00,,FEW043,0.00,0.00,VWS V14.01,2013-01-23 23:30:00,
2013-01-23 17:31:00,29.3,15.6,29.21,WNW,293,2.0,7.0,56,0.00,,FEW043,0.00,0.00,VWS V14.01,2013-01-23 23:31:00,
2013-01-23 17:32:00,29.3,15.6,29.21,WNW,293,1.0,2.0,56,0.00,,FEW043,0.00,0.00,VWS V14.01,2013-01-23 23:32:00,
2013-01-23 17:33:00,29.3,15.6,29.21,NW,310,3.0,4.0,56,0.00,,FEW043,0.00,0.00,VWS V14.01,2013-01-23 23:33:00,
2013-01-23 17:37:00,29.3,15.6,29.21,SW,229,3.0,4.0,56,0.00,,FEW043,0.00,0.00,VWS V14.01,2013-01-23 23:37:00,
2013-01-23 17:38:00,29.3,15.6,29.21,WNW,286,0.0,3.0,56,0.00,,FEW043,0.00,0.00,VWS V14.01,2013-01-23 23:38:00,
2013-01-23 17:43:00,29.3,16.0,29.21,NW,306,0.0,5.0,57,0.00,,FEW043,0.00,0.00,VWS V14.01,2013-01-23 23:43:00,
2013-01-23 17:44:00,29.2,15.9,29.21,NW,309,2.0,3.0,57,0.00,,FEW043,0.00,0.00,VWS V14.01,2013-01-23 23:44:00,
2013-01-23 17:45:00,29.2,15.9,29.22,NW,307,1.0,6.0,57,0.00,,FEW043,0.00,0.00,VWS V14.01,2013-01-23 23:45:00,
2013-01-23 17:50:00,29.1,15.8,29.22,WNW,295,3.0,4.0,57,0.00,,FEW043,0.00,0.00,VWS V14.01,2013-01-23 23:50:00,
2013-01-23 17:53:00,29.0,15.7,29.22,WNW,302,1.0,4.0,57,0.00,,FEW043,0.00,0.00,VWS V14.01,2013-01-23 23:53:00,
2013-01-23 17:55:00,28.9,15.6,29.22,WNW,284,1.0,7.0,57,0.00,,FEW043,0.00,0.00,VWS V14.01,2013-01-23 23:55:00,
2013-01-23 17:57:00,28.9,15.6,29.22,NNW,345,1.0,4.0,57,0.00,,FEW043,0.00,0.00,VWS V14.01,2013-01-23 23:57:00,
2013-01-23 18:00:00,28.8,15.9,29.22,WNW,300,3.0,5.0,58,0.00,,FEW043,0.00,0.00,VWS V14.01,2013-01-24 00:00:00,
2013-01-23 18:01:00,28.8,15.9,29.22,WNW,300,2.0,3.0,58,0.00,,FEW043,0.00,0.00,VWS V14.01,2013-01-24 00:01:00,
2013-01-23 18:02:00,28.7,15.8,29.22,WNW,299,2.0,3.0,58,0.00,,FEW043,0.00,0.00,VWS V14.01,2013-01-24 00:02:00,
2013-01-23 18:06:00,28.6,15.7,29.23,NW,312,2.0,5.0,58,0.00,,FEW043,0.00,0.00,VWS V14.01,2013-01-24 00:06:00,
2013-01-23 18:08:00,28.5,15.6,29.23,NNW,327,0.0,4.0,58,0.00,,FEW043,0.00,0.00,VWS V14.01,2013-01-24 00:08:00,
2013-01-23 18:10:00,28.5,15.6,29.23,NW,319,4.0,7.0,58,0.00,,FEW043,0.00,0.00,VWS V14.01,2013-01-24 00:10:00,
2013-01-23 18:13:00,28.4,15.5,29.23,NW,306,0.0,4.0,58,0.00,,FEW043,0.00,0.00,VWS V14.01,2013-01-24 00:13:00,
2013-01-23 18:15:00,28.4,15.5,29.23,WNW,285,2.0,4.0,58,0.00,,FEW043,0.00,0.00,VWS V14.01,2013-01-24 00:15:00,
2013-01-23 18:17:00,28.3,15.8,29.23,WNW,300,5.0,5.0,59,0.00,,FEW043,0.00,0.00,VWS V14.01,2013-01-24 00:17:00,
2013-01-23 18:21:00,28.2,15.7,29.23,NW,304,2.0,2.0,59,0.00,,FEW043,0.00,0.00,VWS V14.01,2013-01-24 00:21:00,
2013-01-23 18:22:00,28.2,15.7,29.23,NW,304,1.0,3.0,59,0.00,,FEW043,0.00,0.00,VWS V14.01,2013-01-24 00:22:00,
2013-01-23 18:23:00,28.1,15.6,29.23,NW,306,3.0,6.0,59,0.00,,FEW043,0.00,0.00,VWS V14.01,2013-01-24 00:23:00,
2013-01-23 18:27:00,28.0,15.5,29.24,NW,306,2.0,4.0,59,0.00,,FEW043,0.00,0.00,VWS V14.01,2013-01-24 00:27:00,
2013-01-23 18:28:00,28.0,15.5,29.24,WNW,292,3.0,5.0,59,0.00,,FEW043,0.00,0.00,VWS V14.01,2013-01-24 00:28:00,
2013-01-23 18:33:00,27.8,15.7,29.24,WNW,288,2.0,7.0,60,0.00,,CLR,0.00,0.00,VWS V14.01,2013-01-24 00:33:00,
2013-01-23 18:37:00,27.7,15.6,29.24,WNW,284,3.0,6.0,60,0.00,,CLR,0.00,0.00,VWS V14.01,2013-01-24 00:37:00,
2013-01-23 18:38:00,27.6,15.6,29.24,WNW,291,7.0,7.0,60,0.00,,CLR,0.00,0.00,VWS V14.01,2013-01-24 00:38:00,
2013-01-23 18:40:00,27.5,15.4,29.24,NW,306,2.0,3.0,60,0.00,,CLR,0.00,0.00,VWS V14.01,2013-01-24 00:40:00,
2013-01-23 18:42:00,27.5,15.8,29.24,NW,315,5.0,6.0,61,0.00,,CLR,0.00,0.00,VWS V14.01,2013-01-24 00:42:00,
2013-01-23 18:43:00,27.4,15.7,29.24,NW,306,3.0,7.0,61,0.00,,CLR,0.00,0.00,VWS V14.01,2013-01-24 00:43:00,
2013-01-23 18:44:00,27.4,15.7,29.24,NW,314,2.0,5.0,61,0.00,,CLR,0.00,0.00,VWS V14.01,2013-01-24 00:44:00,
2013-01-23 18:46:00,27.4,15.7,29.24,WNW,298,3.0,5.0,61,0.00,,CLR,0.00,0.00,VWS V14.01,2013-01-24 00:46:00,
2013-01-23 18:47:00,27.3,15.6,29.24,NW,313,1.0,4.0,61,0.00,,CLR,0.00,0.00,VWS V14.01,2013-01-24 00:47:00,
2013-01-23 18:50:00,27.2,15.6,29.24,NW,309,3.0,5.0,61,0.00,,CLR,0.00,0.00,VWS V14.01,2013-01-24 00:50:00,
2013-01-23 18:52:00,27.2,15.6,29.24,WNW,302,5.0,7.0,61,0.00,,CLR,0.00,0.00,VWS V14.01,2013-01-24 00:52:00,
2013-01-23 18:53:00,27.1,15.4,29.25,NW,315,0.0,8.0,61,0.00,,CLR,0.00,0.00,VWS V14.01,2013-01-24 00:53:00,
2013-01-23 18:54:00,27.1,15.4,29.25,NW,319,5.0,5.0,61,0.00,,CLR,0.00,0.00,VWS V14.01,2013-01-24 00:54:00,
2013-01-23 18:55:00,27.1,15.4,29.25,NW,305,3.0,5.0,61,0.00,,CLR,0.00,0.00,VWS V14.01,2013-01-24 00:55:00,
2013-01-23 18:57:00,27.0,15.7,29.25,NW,304,3.0,6.0,62,0.00,,CLR,0.00,0.00,VWS V14.01,2013-01-24 00:57:00,
2013-01-23 19:00:00,27.0,15.7,29.25,WNW,291,8.0,8.0,62,0.00,,CLR,0.00,0.00,VWS V14.01,2013-01-24 01:00:00,
2013-01-23 19:01:00,27.0,15.7,29.25,NW,306,4.0,8.0,62,0.00,,CLR,0.00,0.00,VWS V14.01,2013-01-24 01:01:00,
2013-01-23 19:03:00,26.9,15.6,29.25,WNW,298,2.0,4.0,62,0.00,,CLR,0.00,0.00,VWS V14.01,2013-01-24 01:03:00,
2013-01-23 19:05:00,26.8,15.5,29.25,WNW,294,0.0,9.0,62,0.00,,CLR,0.00,0.00,VWS V14.01,2013-01-24 01:05:00,
2013-01-23 19:09:00,26.6,15.4,29.25,East,87,3.0,4.0,62,0.00,,CLR,0.00,0.00,VWS V14.01,2013-01-24 01:09:00,
2013-01-23 19:12:00,26.4,15.5,29.25,WNW,298,2.0,2.0,63,0.00,,CLR,0.00,0.00,VWS V14.01,2013-01-24 01:12:00,
2013-01-23 19:14:00,26.3,15.4,29.25,WNW,290,5.0,6.0,63,0.00,,CLR,0.00,0.00,VWS V14.01,2013-01-24 01:14:00,
2013-01-23 19:16:00,26.2,15.3,29.25,NW,315,6.0,7.0,63,0.00,,CLR,0.00,0.00,VWS V14.01,2013-01-24 01:16:00,
2013-01-23 19:17:00,26.2,15.3,29.25,NW,315,3.0,6.0,63,0.00,,CLR,0.00,0.00,VWS V14.01,2013-01-24 01:17:00,
2013-01-23 19:20:00,26.2,15.3,29.25,NW,310,3.0,6.0,63,0.00,,CLR,0.00,0.00,VWS V14.01,2013-01-24 01:20:00,
2013-01-23 19:22:00,26.1,15.2,29.26,WNW,289,2.0,9.0,63,0.00,,CLR,0.00,0.00,VWS V14.01,2013-01-24 01:22:00,
2013-01-23 19:24:00,26.0,14.8,29.26,NW,315,3.0,5.0,62,0.00,,CLR,0.00,0.00,VWS V14.01,2013-01-24 01:24:00,
2013-01-23 19:28:00,25.9,14.7,29.26,NW,313,4.0,6.0,62,0.00,,CLR,0.00,0.00,VWS V14.01,2013-01-24 01:28:00,
2013-01-23 19:30:00,25.9,14.7,29.26,NW,307,6.0,7.0,62,0.00,,CLR,0.00,0.00,VWS V14.01,2013-01-24 01:30:00,
2013-01-23 19:32:00,25.8,14.6,29.27,West,276,7.0,8.0,62,0.00,,CLR,0.00,0.00,VWS V14.01,2013-01-24 01:32:00,
2013-01-23 19:33:00,25.8,14.6,29.27,WNW,302,4.0,10.0,62,0.00,,CLR,0.00,0.00,VWS V14.01,2013-01-24 01:33:00,
2013-01-23 19:36:00,25.7,14.5,29.27,WNW,292,3.0,7.0,62,0.00,,CLR,0.00,0.00,VWS V14.01,2013-01-24 01:36:00,
2013-01-23 19:39:00,25.6,14.4,29.27,WNW,296,4.0,6.0,62,0.00,,CLR,0.00,0.00,VWS V14.01,2013-01-24 01:39:00,
2013-01-23 19:42:00,25.6,14.4,29.27,NW,309,4.0,6.0,62,0.00,,CLR,0.00,0.00,VWS V14.01,2013-01-24 01:42:00,
2013-01-23 19:45:00,25.4,14.2,29.27,WNW,303,1.0,4.0,62,0.00,,CLR,0.00,0.00,VWS V14.01,2013-01-24 01:45:00,
2013-01-23 19:46:00,25.4,14.2,29.27,NW,304,0.0,2.0,62,0.00,,CLR,0.00,0.00,VWS V14.01,2013-01-24 01:46:00,
2013-01-23 19:47:00,25.4,14.2,29.28,West,259,2.0,7.0,62,0.00,,CLR,0.00,0.00,VWS V14.01,2013-01-24 01:47:00,
2013-01-23 19:50:00,25.2,14.0,29.28,NW,313,0.0,3.0,62,0.00,,CLR,0.00,0.00,VWS V14.01,2013-01-24 01:50:00,
2013-01-23 19:52:00,25.2,14.0,29.27,WNW,302,2.0,8.0,62,0.00,,CLR,0.00,0.00,VWS V14.01,2013-01-24 01:52:00,
2013-01-23 19:56:00,24.9,14.1,29.27,NW,323,1.0,7.0,63,0.00,,CLR,0.00,0.00,VWS V14.01,2013-01-24 01:56:00,
2013-01-23 19:57:00,24.9,14.1,29.27,WNW,301,3.0,7.0,63,0.00,,CLR,0.00,0.00,VWS V14.01,2013-01-24 01:57:00,
2013-01-23 19:58:00,24.9,14.1,29.27,NNW,329,1.0,5.0,63,0.00,,CLR,0.00,0.00,VWS V14.01,2013-01-24 01:58:00,
2013-01-23 20:01:00,24.7,13.9,29.27,NW,311,2.0,4.0,63,0.00,,CLR,0.00,0.00,VWS V14.01,2013-01-24 02:01:00,
2013-01-23 20:02:00,24.7,13.9,29.28,NW,311,3.0,4.0,63,0.00,,CLR,0.00,0.00,VWS V14.01,2013-01-24 02:02:00,
2013-01-23 20:06:00,24.6,13.8,29.27,WNW,303,6.0,7.0,63,0.00,,CLR,0.00,0.00,VWS V14.01,2013-01-24 02:06:00,
2013-01-23 20:07:00,24.5,13.7,29.28,NW,309,3.0,6.0,63,0.00,,CLR,0.00,0.00,VWS V14.01,2013-01-24 02:07:00,
2013-01-23 20:11:00,24.4,13.6,29.28,WNW,300,3.0,6.0,63,0.00,,CLR,0.00,0.00,VWS V14.01,2013-01-24 02:11:00,
2013-01-23 20:12:00,24.4,13.6,29.27,WSW,248,3.0,9.0,63,0.00,,CLR,0.00,0.00,VWS V14.01,2013-01-24 02:12:00,
2013-01-23 20:16:00,24.3,13.5,29.28,NW,313,4.0,8.0,63,0.00,,CLR,0.00,0.00,VWS V14.01,2013-01-24 02:16:00,
2013-01-23 20:17:00,24.2,13.4,29.28,WNW,302,4.0,9.0,63,0.00,,CLR,0.00,0.00,VWS V14.01,2013-01-24 02:17:00,
2013-01-23 20:22:00,24.1,13.3,29.28,WNW,300,4.0,9.0,63,0.00,,CLR,0.00,0.00,VWS V14.01,2013-01-24 02:22:00,
2013-01-23 20:24:00,24.1,13.3,29.28,NW,315,2.0,7.0,63,0.00,,CLR,0.00,0.00,VWS V14.01,2013-01-24 02:24:00,
2013-01-23 20:27:00,24.0,13.2,29.29,NW,305,3.0,9.0,63,0.00,,CLR,0.00,0.00,VWS V14.01,2013-01-24 02:27:00,
2013-01-23 20:28:00,24.0,12.9,29.29,NW,318,5.0,10.0,62,0.00,,CLR,0.00,0.00,VWS V14.01,2013-01-24 02:28:00,
2013-01-23 20:30:00,24.0,12.9,29.29,WNW,303,5.0,7.0,62,0.00,,CLR,0.00,0.00,VWS V14.01,2013-01-24 02:30:00,
2013-01-23 20:32:00,23.9,12.8,29.29,NW,314,3.0,8.0,62,0.00,,CLR,0.00,0.00,VWS V14.01,2013-01-24 02:32:00,
2013-01-23 20:34:00,23.9,12.8,29.30,WNW,299,6.0,6.0,62,0.00,,CLR,0.00,0.00,VWS V14.01,2013-01-24 02:34:00,
2013-01-23 20:35:00,23.9,12.8,29.30,NW,306,4.0,10.0,62,0.00,,CLR,0.00,0.00,VWS V14.01,2013-01-24 02:35:00,
2013-01-23 20:40:00,23.8,12.3,29.30,WNW,285,0.0,9.0,61,0.00,,CLR,0.00,0.00,VWS V14.01,2013-01-24 02:40:00,
2013-01-23 20:41:00,23.8,12.3,29.30,WNW,296,9.0,9.0,61,0.00,,CLR,0.00,0.00,VWS V14.01,2013-01-24 02:41:00,
2013-01-23 20:43:00,23.7,12.2,29.30,WNW,294,4.0,5.0,61,0.00,,CLR,0.00,0.00,VWS V14.01,2013-01-24 02:43:00,
2013-01-23 20:46:00,23.6,12.1,29.30,WNW,283,3.0,4.0,61,0.00,,CLR,0.00,0.00,VWS V14.01,2013-01-24 02:46:00,
2013-01-23 20:47:00,23.5,12.0,29.30,West,281,6.0,10.0,61,0.00,,CLR,0.00,0.00,VWS V14.01,2013-01-24 02:47:00,
2013-01-23 20:49:00,23.4,11.9,29.30,NW,319,3.0,8.0,61,0.00,,CLR,0.00,0.00,VWS V14.01,2013-01-24 02:49:00,
2013-01-23 20:50:00,23.4,12.3,29.31,WNW,289,4.0,4.0,62,0.00,,CLR,0.00,0.00,VWS V14.01,2013-01-24 02:50:00,
2013-01-23 20:54:00,23.2,11.8,29.30,North,360,0.0,12.0,61,0.00,,CLR,0.00,0.00,VWS V14.01,2013-01-24 02:54:00,
2013-01-23 20:55:00,23.2,11.8,29.30,WNW,290,2.0,6.0,61,0.00,,CLR,0.00,0.00,VWS V14.01,2013-01-24 02:55:00,
2013-01-23 20:57:00,23.1,11.7,29.31,West,280,6.0,7.0,61,0.00,,CLR,0.00,0.00,VWS V14.01,2013-01-24 02:57:00,
2013-01-23 21:00:00,23.0,11.6,29.31,NW,313,0.0,6.0,61,0.00,,CLR,0.00,0.00,VWS V14.01,2013-01-24 03:00:00,
2013-01-23 21:03:00,22.8,11.4,29.31,WNW,296,2.0,7.0,61,0.00,,CLR,0.00,0.00,VWS V14.01,2013-01-24 03:03:00,
2013-01-23 21:04:00,22.8,11.4,29.31,SW,215,1.0,8.0,61,0.00,,CLR,0.00,0.00,VWS V14.01,2013-01-24 03:04:00,
2013-01-23 21:05:00,22.7,11.3,29.31,WNW,302,4.0,4.0,61,0.00,,CLR,0.00,0.00,VWS V14.01,2013-01-24 03:05:00,
2013-01-23 21:09:00,22.5,11.1,29.31,SW,232,1.0,5.0,61,0.00,,CLR,0.00,0.00,VWS V14.01,2013-01-24 03:09:00,
2013-01-23 21:11:00,22.4,11.0,29.31,WNW,294,7.0,7.0,61,0.00,,CLR,0.00,0.00,VWS V14.01,2013-01-24 03:11:00,
2013-01-23 21:16:00,22.2,11.2,29.32,ESE,113,2.0,4.0,62,0.00,,CLR,0.00,0.00,VWS V14.01,2013-01-24 03:16:00,
2013-01-23 21:18:00,22.1,11.1,29.32,WNW,288,7.0,7.0,62,0.00,,CLR,0.00,0.00,VWS V14.01,2013-01-24 03:18:00,
2013-01-23 21:19:00,22.1,11.1,29.32,NNW,341,2.0,9.0,62,0.00,,CLR,0.00,0.00,VWS V14.01,2013-01-24 03:19:00,
2013-01-23 21:23:00,21.8,10.8,29.32,WNW,288,3.0,12.0,62,0.00,,CLR,0.00,0.00,VWS V14.01,2013-01-24 03:23:00,
2013-01-23 21:24:00,21.7,10.7,29.32,WNW,302,0.0,4.0,62,0.00,,CLR,0.00,0.00,VWS V14.01,2013-01-24 03:24:00,
2013-01-23 21:29:00,21.4,10.1,29.32,WNW,299,7.0,8.0,61,0.00,,CLR,0.00,0.00,VWS V14.01,2013-01-24 03:29:00,
2013-01-23 21:30:00,21.4,10.1,29.32,NW,304,1.0,7.0,61,0.00,,CLR,0.00,0.00,VWS V14.01,2013-01-24 03:30:00,
2013-01-23 21:34:00,21.1,9.8,29.33,NE,44,2.0,10.0,61,0.00,,CLR,0.00,0.00,VWS V14.01,2013-01-24 03:34:00,
2013-01-23 21:35:00,21.1,9.8,29.33,WNW,300,5.0,8.0,61,0.00,,CLR,0.00,0.00,VWS V14.01,2013-01-24 03:35:00,
2013-01-23 21:40:00,20.8,9.5,29.33,WNW,287,6.0,9.0,61,0.00,,CLR,0.00,0.00,VWS V14.01,2013-01-24 03:40:00,
2013-01-23 21:43:00,20.7,9.4,29.33,NW,310,4.0,8.0,61,0.00,,CLR,0.00,0.00,VWS V14.01,2013-01-24 03:43:00,
2013-01-23 21:46:00,20.6,9.3,29.33,WNW,301,1.0,6.0,61,0.00,,CLR,0.00,0.00,VWS V14.01,2013-01-24 03:46:00,
2013-01-23 21:49:00,20.4,9.1,29.33,WNW,298,0.0,8.0,61,0.00,,CLR,0.00,0.00,VWS V14.01,2013-01-24 03:49:00,
2013-01-23 21:50:00,20.4,9.1,29.33,WNW,293,9.0,9.0,61,0.00,,CLR,0.00,0.00,VWS V14.01,2013-01-24 03:50:00,
2013-01-23 21:51:00,20.4,9.5,29.33,NW,306,0.0,9.0,62,0.00,,CLR,0.00,0.00,VWS V14.01,2013-01-24 03:51:00,
2013-01-23 21:54:00,20.2,9.3,29.34,NNW,337,8.0,9.0,62,0.00,,CLR,0.00,0.00,VWS V14.01,2013-01-24 03:54:00,
2013-01-23 21:56:00,20.1,9.2,29.34,NW,305,5.0,8.0,62,0.00,,CLR,0.00,0.00,VWS V14.01,2013-01-24 03:56:00,
2013-01-23 22:01:00,19.8,8.9,29.34,ESE,110,1.0,11.0,62,0.00,,CLR,0.00,0.00,VWS V14.01,2013-01-24 04:01:00,
2013-01-23 22:04:00,19.7,8.4,29.34,WNW,300,5.0,8.0,61,0.00,,CLR,0.00,0.00,VWS V14.01,2013-01-24 04:04:00,
2013-01-23 22:05:00,19.7,8.8,29.35,WNW,302,7.0,10.0,62,0.00,,CLR,0.00,0.00,VWS V14.01,2013-01-24 04:05:00,
2013-01-23 22:07:00,19.6,8.4,29.34,WNW,286,6.0,6.0,61,0.00,,CLR,0.00,0.00,VWS V14.01,2013-01-24 04:07:00,
2013-01-23 22:12:00,19.3,8.4,29.35,NW,306,0.0,5.0,62,0.00,,CLR,0.00,0.00,VWS V14.01,2013-01-24 04:12:00,
2013-01-23 22:14:00,19.1,8.2,29.35,NW,319,5.0,8.0,62,0.00,,CLR,0.00,0.00,VWS V14.01,2013-01-24 04:14:00,
2013-01-23 22:20:00,18.9,8.1,29.35,NW,312,0.0,3.0,62,0.00,,CLR,0.00,0.00,VWS V14.01,2013-01-24 04:20:00,
2013-01-23 22:22:00,18.9,8.4,29.36,NNW,329,2.0,6.0,63,0.00,,CLR,0.00,0.00,VWS V14.01,2013-01-24 04:22:00,
2013-01-23 22:25:00,18.8,8.3,29.36,NW,305,5.0,8.0,63,0.00,,CLR,0.00,0.00,VWS V14.01,2013-01-24 04:25:00,
2013-01-23 22:27:00,18.7,7.9,29.36,West,274,3.0,7.0,62,0.00,,CLR,0.00,0.00,VWS V14.01,2013-01-24 04:27:00,
2013-01-23 22:30:00,18.6,7.8,29.37,NW,309,3.0,11.0,62,0.00,,CLR,0.00,0.00,VWS V14.01,2013-01-24 04:30:00,
2013-01-23 22:33:00,18.5,7.7,29.37,NW,321,1.0,6.0,62,0.00,,CLR,0.00,0.00,VWS V14.01,2013-01-24 04:33:00,
2013-01-23 22:36:00,18.4,7.6,29.37,WNW,288,2.0,4.0,62,0.00,,CLR,0.00,0.00,VWS V14.01,2013-01-24 04:36:00,
2013-01-23 22:38:00,18.4,7.6,29.37,West,277,8.0,8.0,62,0.00,,CLR,0.00,0.00,VWS V14.01,2013-01-24 04:38:00,
2013-01-23 22:41:00,18.3,7.5,29.37,ESE,104,1.0,3.0,62,0.00,,CLR,0.00,0.00,VWS V14.01,2013-01-24 04:41:00,
2013-01-23 22:42:00,18.3,7.5,29.37,South,185,0.0,2.0,62,0.00,,CLR,0.00,0.00,VWS V14.01,2013-01-24 04:42:00,
2013-01-23 22:43:00,18.2,7.4,29.37,NW,315,1.0,5.0,62,0.00,,CLR,0.00,0.00,VWS V14.01,2013-01-24 04:43:00,
2013-01-23 22:46:00,18.1,7.3,29.38,NW,309,5.0,5.0,62,0.00,,CLR,0.00,0.00,VWS V14.01,2013-01-24 04:46:00,
2013-01-23 22:48:00,18.1,7.3,29.38,WNW,294,2.0,9.0,62,0.00,,CLR,0.00,0.00,VWS V14.01,2013-01-24 04:48:00,
2013-01-23 22:53:00,18.0,7.2,29.38,NNW,348,3.0,3.0,62,0.00,,CLR,0.00,0.00,VWS V14.01,2013-01-24 04:53:00,
2013-01-23 22:54:00,18.0,7.2,29.38,WNW,287,1.0,5.0,62,0.00,,CLR,0.00,0.00,VWS V14.01,2013-01-24 04:54:00,
2013-01-23 22:58:00,17.9,7.1,29.38,NW,314,2.0,6.0,62,0.00,,CLR,0.00,0.00,VWS V14.01,2013-01-24 04:58:00,
2013-01-23 23:00:00,17.8,7.0,29.38,East,84,1.0,4.0,62,0.00,,CLR,0.00,0.00,VWS V14.01,2013-01-24 05:00:00,
2013-01-23 23:05:00,17.7,6.9,29.39,WNW,288,2.0,7.0,62,0.00,,SCT028,0.00,0.00,VWS V14.01,2013-01-24 05:05:00,
2013-01-23 23:07:00,17.6,6.8,29.39,NW,317,3.0,6.0,62,0.00,,SCT028,0.00,0.00,VWS V14.01,2013-01-24 05:07:00,
2013-01-23 23:09:00,17.6,6.8,29.39,West,261,0.0,1.0,62,0.00,,SCT028,0.00,0.00,VWS V14.01,2013-01-24 05:09:00,
2013-01-23 23:11:00,17.6,7.2,29.39,West,261,0.0,1.0,63,0.00,,SCT028,0.00,0.00,VWS V14.01,2013-01-24 05:11:00,
2013-01-23 23:13:00,17.5,7.1,29.39,NW,311,2.0,3.0,63,0.00,,SCT028,0.00,0.00,VWS V14.01,2013-01-24 05:13:00,
2013-01-23 23:14:00,17.5,7.1,29.39,NW,311,0.0,2.0,63,0.00,,SCT028,0.00,0.00,VWS V14.01,2013-01-24 05:14:00,
2013-01-23 23:16:00,17.5,7.1,29.39,WNW,290,8.0,9.0,63,0.00,,SCT028,0.00,0.00,VWS V14.01,2013-01-24 05:16:00,
2013-01-23 23:20:00,17.3,7.2,29.40,WNW,292,0.0,7.0,64,0.00,,SCT028,0.00,0.00,VWS V14.01,2013-01-24 05:20:00,
2013-01-23 23:21:00,17.3,7.2,29.40,WNW,300,2.0,3.0,64,0.00,,SCT028,0.00,0.00,VWS V14.01,2013-01-24 05:21:00,
2013-01-23 23:22:00,17.3,7.2,29.40,WSW,257,1.0,5.0,64,0.00,,SCT028,0.00,0.00,VWS V14.01,2013-01-24 05:22:00,
2013-01-23 23:27:00,17.2,7.1,29.41,NW,306,2.0,4.0,64,0.00,,SCT028,0.00,0.00,VWS V14.01,2013-01-24 05:27:00,
2013-01-23 23:28:00,17.2,7.1,29.41,NW,304,4.0,4.0,64,0.00,,SCT028,0.00,0.00,VWS V14.01,2013-01-24 05:28:00,
2013-01-23 23:30:00,17.2,7.1,29.41,WSW,253,1.0,5.0,64,0.00,,SCT028,0.00,0.00,VWS V14.01,2013-01-24 05:30:00,
2013-01-23 23:33:00,17.1,7.0,29.41,West,271,0.0,5.0,64,0.00,,SCT028,0.00,0.00,VWS V14.01,2013-01-24 05:33:00,
2013-01-23 23:37:00,17.1,6.7,29.41,WSW,252,2.0,15.0,63,0.00,,SCT028,0.00,0.00,VWS V14.01,2013-01-24 05:37:00,
2013-01-23 23:39:00,17.1,7.0,29.41,NW,307,0.0,1.0,64,0.00,,SCT028,0.00,0.00,VWS V14.01,2013-01-24 05:39:00,
2013-01-23 23:42:00,17.0,6.9,29.41,SE,127,2.0,9.0,64,0.00,,SCT028,0.00,0.00,VWS V14.01,2013-01-24 05:42:00,
2013-01-23 23:45:00,16.9,6.8,29.41,NW,315,0.0,4.0,64,0.00,,SCT028,0.00,0.00,VWS V14.01,2013-01-24 05:45:00,
2013-01-23 23:48:00,16.8,6.8,29.41,West,278,0.0,6.0,64,0.00,,SCT028,0.00,0.00,VWS V14.01,2013-01-24 05:48:00,
2013-01-23 23:50:00,16.7,6.7,29.41,NW,326,4.0,4.0,64,0.00,,SCT028,0.00,0.00,VWS V14.01,2013-01-24 05:50:00,
2013-01-23 23:51:00,16.7,6.7,29.42,West,264,0.0,4.0,64,0.00,,SCT028,0.00,0.00,VWS V14.01,2013-01-24 05:51:00,
2013-01-23 23:53:00,16.7,7.0,29.42,ENE,63,2.0,2.0,65,0.00,,SCT028,0.00,0.00,VWS V14.01,2013-01-24 05:53:00,
2013-01-23 23:55:00,16.7,7.0,29.42,NW,307,5.0,9.0,65,0.00,,SCT028,0.00,0.00,VWS V14.01,2013-01-24 05:55:00,
2013-01-23 23:56:00,16.7,7.0,29.42,NW,323,0.0,6.0,65,0.00,,SCT028,0.00,0.00,VWS V14.01,2013-01-24 05:56:00,
2013-01-23 23:59:00,16.6,6.9,29.42,ESE,121,2.0,3.0,65,0.00,,SCT028,0.00,0.00,VWS V14.01,2013-01-24 05:59:00,